Time,TemperatureF,DewpointF,PressureIn,WindDirection,WindDirectionDegrees,WindSpeedMPH,WindSpeedGustMPH,Humidity,HourlyPrecipIn,Conditions,Clouds,dailyrainin,SoftwareType,DateUTC
2013-03-21 00:03:00,24.4,10.9,30.04,NNE,23,0.0,0.0,56,0.00,,,0.00,WUHU215HW,2013-03-21 05:03:00,
2013-03-21 00:06:00,24.4,10.9,30.04,NNE,23,0.0,0.0,56,0.00,,,0.00,WUHU215HW,2013-03-21 05:06:00,
2013-03-21 00:08:00,24.4,10.9,30.04,NNE,23,0.0,0.0,56,0.00,,,0.00,WUHU215HW,2013-03-21 05:08:00,
2013-03-21 00:11:00,24.4,10.9,30.04,NNE,23,0.0,0.0,56,0.00,,,0.00,WUHU215HW,2013-03-21 05:11:00,
2013-03-21 00:12:00,24.4,10.9,30.04,NNE,23,0.0,0.0,56,0.00,,,0.00,WUHU215HW,2013-03-21 05:12:00,
2013-03-21 00:13:00,24.2,10.9,30.04,NNE,23,0.0,0.0,56,0.00,,,0.00,WUHU215HW,2013-03-21 05:13:00,
2013-03-21 00:17:00,24.0,10.9,30.04,NNE,23,0.0,0.0,56,0.00,,,0.00,WUHU215HW,2013-03-21 05:17:00,
2013-03-21 00:18:00,24.0,10.9,30.04,NNE,23,0.0,0.0,56,0.00,,,0.00,WUHU215HW,2013-03-21 05:18:00,
2013-03-21 00:21:00,24.0,10.5,30.04,NNE,23,0.0,0.0,56,0.00,,,0.00,WUHU215HW,2013-03-21 05:21:00,
2013-03-21 00:22:00,24.0,10.5,30.04,NNE,23,0.0,0.0,56,0.00,,,0.00,WUHU215HW,2013-03-21 05:22:00,
2013-03-21 00:26:00,24.0,10.5,30.04,NNE,23,0.0,0.0,56,0.00,,,0.00,WUHU215HW,2013-03-21 05:26:00,
2013-03-21 00:27:00,24.0,10.5,30.04,NNE,23,0.0,0.0,57,0.00,,,0.00,WUHU215HW,2013-03-21 05:27:00,
2013-03-21 00:31:00,23.7,10.6,30.04,NNE,23,0.0,0.0,57,0.00,,,0.00,WUHU215HW,2013-03-21 05:31:00,
2013-03-21 00:33:00,23.7,10.6,30.04,NNE,23,0.0,0.0,57,0.00,,,0.00,WUHU215HW,2013-03-21 05:33:00,
2013-03-21 00:35:00,23.7,10.6,30.04,NNE,23,0.0,0.0,57,0.00,,,0.00,WUHU215HW,2013-03-21 05:35:00,
2013-03-21 00:37:00,23.5,10.4,30.04,NNE,23,0.0,0.0,57,0.00,,,0.00,WUHU215HW,2013-03-21 05:37:00,
2013-03-21 00:40:00,23.5,10.4,30.04,NNE,23,0.0,0.0,57,0.00,,,0.00,WUHU215HW,2013-03-21 05:40:00,
2013-03-21 00:42:00,23.5,10.4,30.04,NNE,23,0.0,0.0,57,0.00,,,0.00,WUHU215HW,2013-03-21 05:42:00,
2013-03-21 00:43:00,23.5,10.8,30.04,NNE,23,0.0,0.0,58,0.00,,,0.00,WUHU215HW,2013-03-21 05:43:00,
2013-03-21 00:46:00,23.3,10.6,30.04,NNE,23,0.0,0.0,58,0.00,,,0.00,WUHU215HW,2013-03-21 05:46:00,
2013-03-21 00:49:00,23.3,10.6,30.04,NNE,23,0.0,0.0,58,0.00,,,0.00,WUHU215HW,2013-03-21 05:49:00,
2013-03-21 00:51:00,23.3,10.6,30.04,NNE,23,0.0,0.0,58,0.00,,,0.00,WUHU215HW,2013-03-21 05:51:00,
2013-03-21 00:52:00,23.3,10.6,30.04,NNE,23,0.0,0.0,58,0.00,,,0.00,WUHU215HW,2013-03-21 05:52:00,
2013-03-21 00:54:00,23.3,10.6,30.04,NE,45,0.0,0.0,58,0.00,,,0.00,WUHU215HW,2013-03-21 05:54:00,
2013-03-21 00:59:00,23.1,10.4,30.04,NE,45,0.0,0.0,58,0.00,,,0.00,WUHU215HW,2013-03-21 05:59:00,
2013-03-21 01:00:00,23.1,10.4,30.04,NE,45,0.0,0.0,58,0.00,,,0.00,WUHU215HW,2013-03-21 06:00:00,
2013-03-21 01:01:00,23.1,10.4,30.04,NE,45,0.0,0.0,58,0.00,,,0.00,WUHU215HW,2013-03-21 06:01:00,
2013-03-21 01:02:00,23.1,10.4,30.04,NE,45,0.0,0.0,58,0.00,,,0.00,WUHU215HW,2013-03-21 06:02:00,
2013-03-21 01:05:00,23.1,10.4,30.04,NE,45,0.0,0.0,58,0.00,,,0.00,WUHU215HW,2013-03-21 06:05:00,
2013-03-21 01:06:00,23.1,10.4,30.04,NE,45,0.0,0.0,58,0.00,,,0.00,WUHU215HW,2013-03-21 06:06:00,
2013-03-21 01:08:00,23.0,10.3,30.04,NE,45,0.0,0.0,58,0.00,,,0.00,WUHU215HW,2013-03-21 06:08:00,
2013-03-21 01:10:00,23.0,10.3,30.04,NE,45,0.0,0.0,58,0.00,,,0.00,WUHU215HW,2013-03-21 06:10:00,
2013-03-21 01:15:00,23.1,10.8,30.04,ESE,113,0.0,0.0,59,0.00,,,0.00,WUHU215HW,2013-03-21 06:15:00,
2013-03-21 01:16:00,23.1,10.4,30.04,ESE,113,0.0,0.0,58,0.00,,,0.00,WUHU215HW,2013-03-21 06:16:00,
2013-03-21 01:18:00,23.0,10.3,30.04,ESE,113,0.0,0.0,58,0.00,,,0.00,WUHU215HW,2013-03-21 06:18:00,
2013-03-21 01:19:00,23.0,10.3,30.04,ESE,113,0.0,0.0,58,0.00,,,0.00,WUHU215HW,2013-03-21 06:19:00,
2013-03-21 01:21:00,23.0,10.3,30.04,East,90,0.0,0.0,58,0.00,,,0.00,WUHU215HW,2013-03-21 06:21:00,
2013-03-21 01:22:00,23.1,10.4,30.04,East,90,0.0,0.0,58,0.00,,,0.00,WUHU215HW,2013-03-21 06:22:00,
2013-03-21 01:24:00,23.1,10.8,30.04,ENE,68,0.0,0.0,59,0.00,,,0.00,WUHU215HW,2013-03-21 06:24:00,
2013-03-21 01:26:00,23.1,10.8,30.04,East,90,0.0,0.0,59,0.00,,,0.00,WUHU215HW,2013-03-21 06:26:00,
2013-03-21 01:29:00,23.1,10.8,30.04,NE,45,0.0,0.0,59,0.00,,,0.00,WUHU215HW,2013-03-21 06:29:00,
2013-03-21 01:32:00,23.1,10.8,30.04,NE,45,0.0,0.0,59,0.00,,,0.00,WUHU215HW,2013-03-21 06:32:00,
2013-03-21 01:35:00,23.3,11.0,30.04,NE,45,0.0,0.0,59,0.00,,,0.00,WUHU215HW,2013-03-21 06:35:00,
2013-03-21 01:39:00,23.5,11.2,30.04,NNW,338,0.0,0.0,59,0.00,,,0.00,WUHU215HW,2013-03-21 06:39:00,
2013-03-21 01:40:00,23.5,11.2,30.04,SSW,203,0.0,0.0,59,0.00,,,0.00,WUHU215HW,2013-03-21 06:40:00,
2013-03-21 01:41:00,23.5,11.2,30.04,SSW,203,0.0,0.0,59,0.00,,,0.00,WUHU215HW,2013-03-21 06:41:00,
2013-03-21 01:46:00,23.5,11.2,30.04,SE,135,0.0,0.0,59,0.00,,,0.00,WUHU215HW,2013-03-21 06:46:00,
2013-03-21 01:48:00,23.7,11.4,30.04,SE,135,0.0,0.0,59,0.00,,,0.00,WUHU215HW,2013-03-21 06:48:00,
2013-03-21 01:50:00,23.7,11.6,30.04,SE,135,0.0,0.0,59,0.00,,,0.00,WUHU215HW,2013-03-21 06:50:00,
2013-03-21 01:52:00,23.9,11.6,30.04,East,90,0.0,0.0,59,0.00,,,0.00,WUHU215HW,2013-03-21 06:52:00,
2013-03-21 01:53:00,23.9,11.6,30.04,East,90,0.0,0.0,59,0.00,,,0.00,WUHU215HW,2013-03-21 06:53:00,
2013-03-21 01:57:00,23.9,11.6,30.04,East,90,0.0,0.0,59,0.00,,,0.00,WUHU215HW,2013-03-21 06:57:00,
2013-03-21 01:58:00,23.9,11.6,30.04,East,90,0.0,0.0,59,0.00,,,0.00,WUHU215HW,2013-03-21 06:58:00,
2013-03-21 02:01:00,24.0,11.7,30.04,East,90,0.0,0.0,59,0.00,,,0.00,WUHU215HW,2013-03-21 07:01:00,
2013-03-21 02:03:00,23.9,11.6,30.04,NNE,23,0.0,0.0,59,0.00,,,0.00,WUHU215HW,2013-03-21 07:03:00,
2013-03-21 02:07:00,24.0,11.7,30.04,SSW,203,0.0,0.0,59,0.00,,,0.00,WUHU215HW,2013-03-21 07:07:00,
2013-03-21 02:08:00,24.0,11.7,30.04,SSW,203,0.0,0.0,59,0.00,,,0.00,WUHU215HW,2013-03-21 07:08:00,
2013-03-21 02:11:00,24.0,11.7,30.04,South,180,0.0,0.0,59,0.00,,,0.00,WUHU215HW,2013-03-21 07:11:00,
2013-03-21 02:13:00,24.0,11.7,30.04,ESE,113,0.0,0.0,59,0.00,,,0.00,WUHU215HW,2013-03-21 07:13:00,
2013-03-21 02:15:00,24.0,11.7,30.04,ESE,113,0.0,0.0,59,0.00,,,0.00,WUHU215HW,2013-03-21 07:15:00,
2013-03-21 02:16:00,23.9,11.6,30.04,SSE,158,0.0,0.0,59,0.00,,,0.00,WUHU215HW,2013-03-21 07:16:00,
2013-03-21 02:18:00,23.9,11.6,30.04,SSE,158,0.0,0.0,59,0.00,,,0.00,WUHU215HW,2013-03-21 07:18:00,
2013-03-21 02:20:00,23.9,11.6,30.04,SSE,158,0.0,0.0,59,0.00,,,0.00,WUHU215HW,2013-03-21 07:20:00,
2013-03-21 02:21:00,23.9,11.6,30.04,SSE,158,0.0,0.0,59,0.00,,,0.00,WUHU215HW,2013-03-21 07:21:00,
2013-03-21 02:24:00,23.9,11.6,30.04,SSE,158,0.0,0.0,59,0.00,,,0.00,WUHU215HW,2013-03-21 07:24:00,
2013-03-21 02:25:00,23.9,11.6,30.04,SSE,158,0.0,0.0,59,0.00,,,0.00,WUHU215HW,2013-03-21 07:25:00,
2013-03-21 02:29:00,23.9,11.6,30.04,SSE,158,0.0,0.0,59,0.00,,,0.00,WUHU215HW,2013-03-21 07:29:00,
2013-03-21 02:31:00,23.9,11.6,30.04,SE,135,0.0,0.0,59,0.00,,,0.00,WUHU215HW,2013-03-21 07:31:00,
2013-03-21 02:34:00,23.7,11.6,30.04,SE,135,0.0,0.0,60,0.00,,,0.00,WUHU215HW,2013-03-21 07:34:00,
2013-03-21 02:38:00,23.9,12.0,30.04,SE,135,0.0,0.0,60,0.00,,,0.00,WUHU215HW,2013-03-21 07:38:00,
2013-03-21 02:42:00,23.9,12.0,30.04,SSE,158,0.0,0.0,60,0.00,,,0.00,WUHU215HW,2013-03-21 07:42:00,
2013-03-21 02:43:00,23.9,12.0,30.04,SSE,158,0.0,0.0,60,0.00,,,0.00,WUHU215HW,2013-03-21 07:43:00,
2013-03-21 02:46:00,23.9,12.0,30.04,East,90,0.0,0.0,60,0.00,,,0.00,WUHU215HW,2013-03-21 07:46:00,
2013-03-21 02:47:00,23.9,12.0,30.04,East,90,0.0,0.0,60,0.00,,,0.00,WUHU215HW,2013-03-21 07:47:00,
2013-03-21 02:49:00,23.9,12.0,30.04,SE,135,0.0,0.0,60,0.00,,,0.00,WUHU215HW,2013-03-21 07:49:00,
2013-03-21 02:52:00,23.9,12.0,30.04,SE,135,0.0,0.0,60,0.00,,,0.00,WUHU215HW,2013-03-21 07:52:00,
2013-03-21 02:54:00,23.9,12.0,30.04,SE,135,0.0,0.0,60,0.00,,,0.00,WUHU215HW,2013-03-21 07:54:00,
2013-03-21 02:57:00,23.9,12.0,30.04,SE,135,0.0,0.0,60,0.00,,,0.00,WUHU215HW,2013-03-21 07:57:00,
2013-03-21 02:59:00,23.9,12.0,30.04,SE,135,0.0,0.0,60,0.00,,,0.00,WUHU215HW,2013-03-21 07:59:00,
2013-03-21 03:01:00,23.9,12.0,30.04,SSE,158,0.0,0.0,60,0.00,,,0.00,WUHU215HW,2013-03-21 08:01:00,
2013-03-21 03:02:00,23.9,12.0,30.04,SSE,158,0.0,0.0,60,0.00,,,0.00,WUHU215HW,2013-03-21 08:02:00,
2013-03-21 03:05:00,24.0,12.0,30.04,NW,315,0.0,0.0,60,0.00,,,0.00,WUHU215HW,2013-03-21 08:05:00,
2013-03-21 03:08:00,24.0,12.0,30.04,NW,315,0.0,0.0,60,0.00,,,0.00,WUHU215HW,2013-03-21 08:08:00,
2013-03-21 03:10:00,24.0,12.2,30.04,NW,315,0.0,0.0,60,0.00,,,0.00,WUHU215HW,2013-03-21 08:10:00,
2013-03-21 03:13:00,24.0,12.2,30.04,SE,135,0.0,0.0,60,0.00,,,0.00,WUHU215HW,2013-03-21 08:13:00,
2013-03-21 03:16:00,24.0,12.2,30.04,ESE,113,0.0,0.0,60,0.00,,,0.00,WUHU215HW,2013-03-21 08:16:00,
2013-03-21 03:18:00,24.0,12.2,30.04,SSE,158,0.0,0.0,60,0.00,,,0.00,WUHU215HW,2013-03-21 08:18:00,
2013-03-21 03:21:00,24.0,12.2,30.04,SSE,158,0.0,0.0,60,0.00,,,0.00,WUHU215HW,2013-03-21 08:21:00,
2013-03-21 03:22:00,24.0,12.2,30.04,SSE,158,0.0,0.0,60,0.00,,,0.00,WUHU215HW,2013-03-21 08:22:00,
2013-03-21 03:26:00,24.0,12.2,30.04,East,90,0.0,0.0,60,0.00,,,0.00,WUHU215HW,2013-03-21 08:26:00,
2013-03-21 03:27:00,24.0,12.2,30.04,East,90,0.0,0.0,60,0.00,,,0.00,WUHU215HW,2013-03-21 08:27:00,
2013-03-21 03:28:00,24.0,12.2,30.04,South,180,0.0,0.0,60,0.00,,,0.00,WUHU215HW,2013-03-21 08:28:00,
2013-03-21 03:31:00,24.0,12.2,30.04,South,180,0.0,0.0,60,0.00,,,0.00,WUHU215HW,2013-03-21 08:31:00,
2013-03-21 03:33:00,24.0,12.2,30.04,South,180,0.0,0.0,60,0.00,,,0.00,WUHU215HW,2013-03-21 08:33:00,
2013-03-21 03:35:00,24.0,12.2,30.04,South,180,0.0,0.0,60,0.00,,,0.00,WUHU215HW,2013-03-21 08:35:00,
2013-03-21 03:40:00,24.0,12.2,30.04,SE,135,0.0,0.0,60,0.00,,,0.00,WUHU215HW,2013-03-21 08:40:00,
2013-03-21 03:41:00,24.0,12.2,30.04,ENE,68,0.0,0.0,60,0.00,,,0.00,WUHU215HW,2013-03-21 08:41:00,
2013-03-21 03:45:00,24.0,12.2,30.04,SSE,158,0.0,0.0,60,0.00,,,0.00,WUHU215HW,2013-03-21 08:45:00,
2013-03-21 03:46:00,24.0,12.2,30.04,SSE,158,0.0,0.0,60,0.00,,,0.00,WUHU215HW,2013-03-21 08:46:00,
2013-03-21 03:51:00,24.0,12.2,30.04,South,180,0.0,0.0,60,0.00,,,0.00,WUHU215HW,2013-03-21 08:51:00,
2013-03-21 03:55:00,24.0,12.2,30.04,West,270,0.0,0.0,60,0.00,,,0.00,WUHU215HW,2013-03-21 08:55:00,
2013-03-21 03:56:00,24.0,12.2,30.04,NE,45,0.0,0.0,60,0.00,,,0.00,WUHU215HW,2013-03-21 08:56:00,
2013-03-21 04:00:00,24.0,12.2,30.04,NE,45,0.0,0.0,60,0.00,,,0.00,WUHU215HW,2013-03-21 09:00:00,
2013-03-21 04:02:00,24.0,12.2,30.04,NW,315,0.0,0.0,60,0.00,,,0.00,WUHU215HW,2013-03-21 09:02:00,
2013-03-21 04:05:00,24.0,12.2,30.04,NE,45,0.0,0.0,60,0.00,,,0.00,WUHU215HW,2013-03-21 09:05:00,
2013-03-21 04:06:00,24.0,12.2,30.04,NE,45,0.0,0.0,60,0.00,,,0.00,WUHU215HW,2013-03-21 09:06:00,
2013-03-21 04:07:00,24.0,12.2,30.04,NE,45,0.0,0.0,60,0.00,,,0.00,WUHU215HW,2013-03-21 09:07:00,
2013-03-21 04:10:00,24.0,12.2,30.04,ENE,68,0.0,0.0,60,0.00,,,0.00,WUHU215HW,2013-03-21 09:10:00,
2013-03-21 04:12:00,24.0,11.7,30.04,ENE,68,0.0,0.0,59,0.00,,,0.00,WUHU215HW,2013-03-21 09:12:00,
2013-03-21 04:17:00,24.0,11.7,30.04,SE,135,0.0,0.0,59,0.00,,,0.00,WUHU215HW,2013-03-21 09:17:00,
2013-03-21 04:18:00,24.0,11.7,30.04,NNE,23,0.0,0.0,59,0.00,,,0.00,WUHU215HW,2013-03-21 09:18:00,
2013-03-21 04:23:00,24.4,12.1,30.04,NE,45,0.0,0.0,59,0.00,,,0.00,WUHU215HW,2013-03-21 09:23:00,
2013-03-21 04:25:00,24.4,12.1,30.04,NNE,23,0.0,0.0,59,0.00,,,0.00,WUHU215HW,2013-03-21 09:25:00,
2013-03-21 04:28:00,24.2,11.7,30.04,East,90,0.0,0.0,59,0.00,,,0.00,WUHU215HW,2013-03-21 09:28:00,
2013-03-21 04:31:00,24.2,11.9,30.04,North,0,0.0,0.0,59,0.00,,,0.00,WUHU215HW,2013-03-21 09:31:00,
2013-03-21 04:33:00,24.2,11.9,30.04,North,0,0.0,0.0,59,0.00,,,0.00,WUHU215HW,2013-03-21 09:33:00,
2013-03-21 04:36:00,24.0,11.9,30.04,NE,45,0.0,0.0,59,0.00,,,0.00,WUHU215HW,2013-03-21 09:36:00,
2013-03-21 04:38:00,24.0,11.7,30.04,NE,45,0.0,0.0,59,0.00,,,0.00,WUHU215HW,2013-03-21 09:38:00,
2013-03-21 04:41:00,24.0,11.7,30.04,NE,45,0.0,0.0,59,0.00,,,0.00,WUHU215HW,2013-03-21 09:41:00,
2013-03-21 04:43:00,24.0,11.7,30.04,ENE,68,0.0,0.0,59,0.00,,,0.00,WUHU215HW,2013-03-21 09:43:00,
2013-03-21 04:46:00,24.0,11.7,30.04,NE,45,0.0,0.0,59,0.00,,,0.00,WUHU215HW,2013-03-21 09:46:00,
2013-03-21 04:48:00,24.0,11.7,30.04,SSE,158,0.0,0.0,59,0.00,,,0.00,WUHU215HW,2013-03-21 09:48:00,
2013-03-21 04:53:00,24.0,11.7,30.04,SSE,158,0.0,0.0,59,0.00,,,0.00,WUHU215HW,2013-03-21 09:53:00,
2013-03-21 04:54:00,24.0,11.7,30.04,ESE,113,0.0,0.0,59,0.00,,,0.00,WUHU215HW,2013-03-21 09:54:00,
2013-03-21 04:59:00,24.0,11.7,30.04,ENE,68,0.0,0.0,59,0.00,,,0.00,WUHU215HW,2013-03-21 09:59:00,
2013-03-21 05:00:00,24.0,11.7,30.04,North,0,0.0,0.0,59,0.00,,,0.00,WUHU215HW,2013-03-21 10:00:00,
2013-03-21 05:04:00,24.0,11.7,30.04,North,0,0.0,0.0,59,0.00,,,0.00,WUHU215HW,2013-03-21 10:04:00,
2013-03-21 05:05:00,24.0,11.7,30.04,North,0,0.0,0.0,59,0.00,,,0.00,WUHU215HW,2013-03-21 10:05:00,
2013-03-21 05:09:00,24.0,11.7,30.04,East,90,0.0,0.0,60,0.00,,,0.00,WUHU215HW,2013-03-21 10:09:00,
2013-03-21 05:10:00,24.0,11.7,30.04,East,90,0.0,0.0,60,0.00,,,0.00,WUHU215HW,2013-03-21 10:10:00,
2013-03-21 05:15:00,24.0,11.7,30.04,NE,45,0.0,0.0,60,0.00,,,0.00,WUHU215HW,2013-03-21 10:15:00,
2013-03-21 05:17:00,24.0,11.7,30.04,NE,45,0.0,0.0,60,0.00,,,0.00,WUHU215HW,2013-03-21 10:17:00,
2013-03-21 05:20:00,24.0,12.2,30.04,NE,45,0.0,0.0,60,0.00,,,0.00,WUHU215HW,2013-03-21 10:20:00,
2013-03-21 05:22:00,24.0,12.2,30.04,ESE,113,0.0,0.0,60,0.00,,,0.00,WUHU215HW,2013-03-21 10:22:00,
2013-03-21 05:27:00,24.0,12.2,30.04,ESE,113,0.0,0.0,60,0.00,,,0.00,WUHU215HW,2013-03-21 10:27:00,
2013-03-21 05:28:00,24.0,12.2,30.04,SE,135,0.0,0.0,60,0.00,,,0.00,WUHU215HW,2013-03-21 10:28:00,
2013-03-21 05:33:00,24.0,12.2,30.04,WNW,293,0.0,0.0,60,0.00,,,0.00,WUHU215HW,2013-03-21 10:33:00,
2013-03-21 05:35:00,24.2,12.3,30.04,WNW,293,0.0,0.0,60,0.00,,,0.00,WUHU215HW,2013-03-21 10:35:00,
2013-03-21 05:37:00,24.2,12.3,30.04,WNW,293,0.0,0.0,60,0.00,,,0.00,WUHU215HW,2013-03-21 10:37:00,
2013-03-21 05:38:00,24.2,12.3,30.04,WNW,293,0.0,0.0,60,0.00,,,0.00,WUHU215HW,2013-03-21 10:38:00,
2013-03-21 05:40:00,24.2,12.3,30.04,WNW,293,0.0,0.0,60,0.00,,,0.00,WUHU215HW,2013-03-21 10:40:00,
2013-03-21 05:45:00,24.0,12.2,30.04,NE,45,0.0,0.0,60,0.00,,,0.00,WUHU215HW,2013-03-21 10:45:00,
2013-03-21 05:46:00,24.4,12.2,30.04,NE,45,0.0,0.0,60,0.00,,,0.00,WUHU215HW,2013-03-21 10:46:00,
2013-03-21 05:50:00,24.4,12.2,30.04,NE,45,0.0,0.0,60,0.00,,,0.00,WUHU215HW,2013-03-21 10:50:00,
2013-03-21 05:51:00,24.4,12.2,30.04,NE,45,0.0,0.0,60,0.00,,,0.00,WUHU215HW,2013-03-21 10:51:00,
2013-03-21 05:55:00,24.4,12.5,30.04,ESE,113,0.0,0.0,60,0.00,,,0.00,WUHU215HW,2013-03-21 10:55:00,
2013-03-21 05:57:00,24.4,12.5,30.04,ESE,113,0.0,0.0,60,0.00,,,0.00,WUHU215HW,2013-03-21 10:57:00,
2013-03-21 06:01:00,24.4,12.5,30.04,ESE,113,0.0,0.0,60,0.00,,,0.00,WUHU215HW,2013-03-21 11:01:00,
2013-03-21 06:02:00,24.4,12.5,30.04,ESE,113,0.0,0.0,60,0.00,,,0.00,WUHU215HW,2013-03-21 11:02:00,
2013-03-21 06:03:00,24.4,12.5,30.04,ESE,113,0.0,0.0,60,0.00,,,0.00,WUHU215HW,2013-03-21 11:03:00,
2013-03-21 06:07:00,24.4,12.5,30.04,East,90,0.0,0.0,60,0.00,,,0.00,WUHU215HW,2013-03-21 11:07:00,
2013-03-21 06:11:00,24.4,12.5,30.04,NW,315,0.0,0.0,60,0.00,,,0.00,WUHU215HW,2013-03-21 11:11:00,
2013-03-21 06:12:00,24.4,12.5,30.04,NW,315,0.0,0.0,60,0.00,,,0.00,WUHU215HW,2013-03-21 11:12:00,
2013-03-21 06:13:00,24.4,12.5,30.04,NW,315,0.0,0.0,60,0.00,,,0.00,WUHU215HW,2013-03-21 11:13:00,
2013-03-21 06:17:00,24.4,12.5,30.04,SSE,158,0.0,0.0,60,0.00,,,0.00,WUHU215HW,2013-03-21 11:17:00,
2013-03-21 06:19:00,24.4,12.5,30.04,SSE,158,0.0,0.0,60,0.00,,,0.00,WUHU215HW,2013-03-21 11:19:00,
2013-03-21 06:21:00,24.4,12.5,30.04,East,90,0.0,0.0,60,0.00,,,0.00,WUHU215HW,2013-03-21 11:21:00,
2013-03-21 06:24:00,24.4,12.5,30.04,SE,135,0.0,0.0,60,0.00,,,0.00,WUHU215HW,2013-03-21 11:24:00,
2013-03-21 06:26:00,24.4,12.5,30.04,SE,135,0.0,0.0,60,0.00,,,0.00,WUHU215HW,2013-03-21 11:26:00,
2013-03-21 06:29:00,24.4,12.5,30.04,ESE,113,0.0,0.0,60,0.00,,,0.00,WUHU215HW,2013-03-21 11:29:00,
2013-03-21 06:30:00,24.4,12.5,30.04,ESE,113,0.0,0.0,60,0.00,,,0.00,WUHU215HW,2013-03-21 11:30:00,
2013-03-21 06:34:00,24.4,12.5,30.04,ESE,113,0.0,0.0,60,0.00,,,0.00,WUHU215HW,2013-03-21 11:34:00,
2013-03-21 06:35:00,24.4,12.5,30.04,East,90,0.0,0.0,60,0.00,,,0.00,WUHU215HW,2013-03-21 11:35:00,
2013-03-21 06:39:00,24.4,12.5,30.04,SSE,158,0.0,0.0,60,0.00,,,0.00,WUHU215HW,2013-03-21 11:39:00,
2013-03-21 06:41:00,24.4,12.5,30.04,SSE,158,0.0,0.0,60,0.00,,,0.00,WUHU215HW,2013-03-21 11:41:00,
2013-03-21 06:43:00,24.4,12.5,30.04,SSE,158,0.0,0.0,60,0.00,,,0.00,WUHU215HW,2013-03-21 11:43:00,
2013-03-21 06:45:00,24.4,12.5,30.04,East,90,0.0,0.0,60,0.00,,,0.00,WUHU215HW,2013-03-21 11:45:00,
2013-03-21 06:47:00,24.4,12.5,30.04,East,90,0.0,0.0,60,0.00,,,0.00,WUHU215HW,2013-03-21 11:47:00,
2013-03-21 06:49:00,24.4,12.5,30.04,East,90,0.0,0.0,60,0.00,,,0.00,WUHU215HW,2013-03-21 11:49:00,
2013-03-21 06:50:00,24.4,12.5,30.04,NE,45,0.0,0.0,60,0.00,,,0.00,WUHU215HW,2013-03-21 11:50:00,
2013-03-21 06:53:00,24.4,12.5,30.04,NE,45,0.0,0.0,60,0.00,,,0.00,WUHU215HW,2013-03-21 11:53:00,
2013-03-21 06:56:00,24.4,12.9,30.04,ENE,68,0.0,0.0,61,0.00,,,0.00,WUHU215HW,2013-03-21 11:56:00,
2013-03-21 06:58:00,24.4,12.9,30.04,ENE,68,0.0,0.0,61,0.00,,,0.00,WUHU215HW,2013-03-21 11:58:00,
2013-03-21 07:00:00,24.4,12.9,30.04,ESE,113,0.0,0.0,61,0.00,,,0.00,WUHU215HW,2013-03-21 12:00:00,
2013-03-21 07:01:00,24.4,12.9,30.04,ESE,113,0.0,0.0,61,0.00,,,0.00,WUHU215HW,2013-03-21 12:01:00,
2013-03-21 07:06:00,24.4,12.9,30.04,ESE,113,0.0,0.0,61,0.00,,,0.00,WUHU215HW,2013-03-21 12:06:00,
2013-03-21 07:07:00,24.4,12.9,30.04,SE,135,0.0,0.0,61,0.00,,,0.00,WUHU215HW,2013-03-21 12:07:00,
2013-03-21 07:08:00,24.4,12.9,30.04,SE,135,0.0,0.0,61,0.00,,,0.00,WUHU215HW,2013-03-21 12:08:00,
2013-03-21 07:13:00,24.4,12.9,30.04,SE,135,0.0,0.0,61,0.00,,,0.00,WUHU215HW,2013-03-21 12:13:00,
2013-03-21 07:15:00,24.4,12.9,30.04,ESE,113,1.5,1.5,61,0.00,,,0.00,WUHU215HW,2013-03-21 12:15:00,
2013-03-21 07:16:00,24.4,12.9,30.04,ESE,113,1.5,1.5,61,0.00,,,0.00,WUHU215HW,2013-03-21 12:16:00,
2013-03-21 07:18:00,24.4,12.9,30.04,ESE,113,1.5,1.5,61,0.00,,,0.00,WUHU215HW,2013-03-21 12:18:00,
2013-03-21 07:21:00,24.4,12.9,30.04,ESE,113,1.5,1.5,61,0.00,,,0.00,WUHU215HW,2013-03-21 12:21:00,
2013-03-21 07:23:00,24.4,12.9,30.04,ESE,113,1.5,1.5,61,0.00,,,0.00,WUHU215HW,2013-03-21 12:23:00,
2013-03-21 07:24:00,24.4,12.9,30.04,ESE,113,1.5,1.5,61,0.00,,,0.00,WUHU215HW,2013-03-21 12:24:00,
2013-03-21 07:26:00,24.0,12.5,30.04,SE,135,0.0,1.5,61,0.00,,,0.00,WUHU215HW,2013-03-21 12:26:00,
2013-03-21 07:27:00,24.0,12.5,30.04,SE,135,0.0,1.5,61,0.00,,,0.00,WUHU215HW,2013-03-21 12:27:00,
2013-03-21 07:29:00,24.0,12.5,30.04,SE,135,0.0,1.5,62,0.00,,,0.00,WUHU215HW,2013-03-21 12:29:00,
2013-03-21 07:32:00,24.0,12.5,30.04,SE,135,0.0,1.5,62,0.00,,,0.00,WUHU215HW,2013-03-21 12:32:00,
2013-03-21 07:34:00,24.0,12.5,30.04,SE,135,0.0,0.0,62,0.00,,,0.00,WUHU215HW,2013-03-21 12:34:00,
2013-03-21 07:38:00,24.0,12.5,30.04,SE,135,0.0,0.0,63,0.00,,,0.00,WUHU215HW,2013-03-21 12:38:00,
2013-03-21 07:41:00,24.0,12.5,30.04,SE,135,0.0,0.0,63,0.00,,,0.00,WUHU215HW,2013-03-21 12:41:00,
2013-03-21 07:42:00,24.0,12.5,30.04,SE,135,0.0,0.0,63,0.00,,,0.00,WUHU215HW,2013-03-21 12:42:00,
2013-03-21 07:43:00,23.9,12.5,30.04,SE,135,0.0,0.0,63,0.00,,,0.00,WUHU215HW,2013-03-21 12:43:00,
2013-03-21 07:48:00,23.7,12.5,30.04,SE,135,0.0,0.0,63,0.00,,,0.00,WUHU215HW,2013-03-21 12:48:00,
2013-03-21 07:51:00,23.7,12.5,30.04,SE,135,0.0,0.0,63,0.00,,,0.00,WUHU215HW,2013-03-21 12:51:00,
2013-03-21 07:53:00,23.7,12.8,30.04,ESE,113,0.0,0.0,63,0.00,,,0.00,WUHU215HW,2013-03-21 12:53:00,
2013-03-21 07:57:00,23.5,13.7,30.04,NNE,23,0.0,0.0,66,0.00,,,0.00,WUHU215HW,2013-03-21 12:57:00,
2013-03-21 07:58:00,23.5,13.7,30.04,NNE,23,0.0,0.0,66,0.00,,,0.00,WUHU215HW,2013-03-21 12:58:00,
2013-03-21 08:01:00,23.3,13.7,30.04,SSE,158,0.0,0.0,66,0.00,,,0.00,WUHU215HW,2013-03-21 13:01:00,
2013-03-21 08:03:00,23.1,13.7,30.04,South,180,0.0,0.0,68,0.00,,,0.00,WUHU215HW,2013-03-21 13:03:00,
2013-03-21 08:07:00,23.0,13.7,30.04,NNE,23,0.0,0.0,69,0.00,,,0.00,WUHU215HW,2013-03-21 13:07:00,
2013-03-21 08:09:00,23.0,14.3,30.04,NNE,23,0.0,0.0,69,0.00,,,0.00,WUHU215HW,2013-03-21 13:09:00,
2013-03-21 08:10:00,23.0,14.3,30.04,NNE,23,0.0,0.0,69,0.00,,,0.00,WUHU215HW,2013-03-21 13:10:00,
2013-03-21 08:12:00,22.8,14.5,30.04,SSE,158,0.0,0.0,70,0.00,,,0.00,WUHU215HW,2013-03-21 13:12:00,
2013-03-21 08:15:00,22.6,14.6,30.04,NE,45,0.0,0.0,71,0.00,,,0.00,WUHU215HW,2013-03-21 13:15:00,
2013-03-21 08:16:00,22.6,14.6,30.04,NE,45,0.0,0.0,71,0.00,,,0.00,WUHU215HW,2013-03-21 13:16:00,
2013-03-21 08:17:00,22.6,14.6,30.04,NE,45,0.0,0.0,71,0.00,,,0.00,WUHU215HW,2013-03-21 13:17:00,
2013-03-21 08:20:00,22.6,14.9,30.04,North,0,0.0,0.0,72,0.00,,,0.00,WUHU215HW,2013-03-21 13:20:00,
2013-03-21 08:23:00,22.4,14.7,30.04,SSE,158,0.0,0.0,72,0.00,,,0.00,WUHU215HW,2013-03-21 13:23:00,
2013-03-21 08:25:00,22.2,14.9,30.04,SE,135,0.0,0.0,73,0.00,,,0.00,WUHU215HW,2013-03-21 13:25:00,
2013-03-21 08:26:00,22.2,14.9,30.04,SE,135,0.0,0.0,73,0.00,,,0.00,WUHU215HW,2013-03-21 13:26:00,
2013-03-21 08:30:00,22.2,14.9,30.04,SE,135,0.0,0.0,73,0.00,,,0.00,WUHU215HW,2013-03-21 13:30:00,
2013-03-21 08:31:00,22.2,14.9,30.04,SE,135,0.0,0.0,74,0.00,,,0.00,WUHU215HW,2013-03-21 13:31:00,
2013-03-21 08:32:00,22.2,14.9,30.04,SE,135,0.0,0.0,74,0.00,,,0.00,WUHU215HW,2013-03-21 13:32:00,
2013-03-21 08:35:00,22.2,15.2,30.04,SE,135,0.0,0.0,74,0.00,,,0.00,WUHU215HW,2013-03-21 13:35:00,
2013-03-21 08:36:00,22.2,15.2,30.04,SE,135,0.0,0.0,74,0.00,,,0.00,WUHU215HW,2013-03-21 13:36:00,
2013-03-21 08:39:00,22.6,15.5,30.04,SE,135,0.0,0.0,74,0.00,,,0.00,WUHU215HW,2013-03-21 13:39:00,
2013-03-21 08:41:00,22.6,15.5,30.04,SE,135,0.0,0.0,74,0.00,,,0.00,WUHU215HW,2013-03-21 13:41:00,
2013-03-21 08:44:00,22.6,15.8,30.04,SE,135,0.0,0.0,75,0.00,,,0.00,WUHU215HW,2013-03-21 13:44:00,
2013-03-21 08:45:00,22.6,15.8,30.04,East,90,0.0,0.0,75,0.00,,,0.00,WUHU215HW,2013-03-21 13:45:00,
2013-03-21 08:48:00,22.6,15.8,30.04,East,90,0.0,0.0,75,0.00,,,0.00,WUHU215HW,2013-03-21 13:48:00,
2013-03-21 08:52:00,22.6,15.8,30.04,ENE,68,0.0,0.0,75,0.00,,,0.00,WUHU215HW,2013-03-21 13:52:00,
2013-03-21 08:54:00,22.6,15.8,30.04,SW,225,0.0,0.0,75,0.00,,,0.00,WUHU215HW,2013-03-21 13:54:00,
2013-03-21 08:55:00,22.6,15.8,30.04,SW,225,0.0,0.0,75,0.00,,,0.00,WUHU215HW,2013-03-21 13:55:00,
2013-03-21 08:56:00,22.6,15.8,30.04,NE,45,0.0,0.0,75,0.00,,,0.00,WUHU215HW,2013-03-21 13:56:00,
2013-03-21 09:00:00,22.4,15.7,30.04,SSW,203,0.0,0.0,75,0.00,,,0.00,WUHU215HW,2013-03-21 14:00:00,
2013-03-21 09:01:00,22.3,15.6,30.04,SSW,203,0.0,0.0,75,0.00,,,0.00,WUHU215HW,2013-03-21 14:01:00,
2013-03-21 09:03:00,22.4,16.0,30.04,NNE,23,0.0,0.0,76,0.00,,,0.00,WUHU215HW,2013-03-21 14:03:00,
2013-03-21 09:05:00,22.1,15.7,30.04,SE,135,0.0,0.0,76,0.00,,,0.00,WUHU215HW,2013-03-21 14:05:00,
2013-03-21 09:07:00,22.2,15.8,30.04,SSE,158,0.0,0.0,76,0.00,,,0.00,WUHU215HW,2013-03-21 14:07:00,
2013-03-21 09:09:00,21.9,15.5,30.04,East,90,0.0,0.0,76,0.00,,,0.00,WUHU215HW,2013-03-21 14:09:00,
2013-03-21 09:11:00,22.0,15.6,30.04,ENE,68,0.0,0.0,76,0.00,,,0.00,WUHU215HW,2013-03-21 14:11:00,
2013-03-21 09:12:00,22.0,15.6,30.04,ENE,68,0.0,0.0,76,0.00,,,0.00,WUHU215HW,2013-03-21 14:12:00,
2013-03-21 09:13:00,21.9,15.5,30.04,ENE,68,0.0,0.0,76,0.00,,,0.00,WUHU215HW,2013-03-21 14:13:00,
2013-03-21 09:16:00,21.8,15.4,30.04,ENE,68,0.0,0.0,76,0.00,,,0.00,WUHU215HW,2013-03-21 14:16:00,
2013-03-21 09:18:00,21.7,15.3,30.04,ENE,68,0.0,0.0,76,0.00,,,0.00,WUHU215HW,2013-03-21 14:18:00,
2013-03-21 09:19:00,21.6,15.2,30.04,ENE,68,0.0,0.0,76,0.00,,,0.00,WUHU215HW,2013-03-21 14:19:00,
2013-03-21 09:23:00,21.4,15.0,30.04,East,90,0.0,0.0,76,0.00,,,0.00,WUHU215HW,2013-03-21 14:23:00,
2013-03-21 09:24:00,21.6,15.2,30.04,SSE,158,0.0,0.0,76,0.00,,,0.00,WUHU215HW,2013-03-21 14:24:00,
2013-03-21 09:27:00,21.4,15.0,30.04,East,90,0.0,0.0,76,0.00,,,0.00,WUHU215HW,2013-03-21 14:27:00,
2013-03-21 09:29:00,21.3,14.9,30.04,ENE,68,0.0,0.0,76,0.00,,,0.00,WUHU215HW,2013-03-21 14:29:00,
2013-03-21 09:30:00,21.3,14.9,30.04,SSE,158,0.0,0.0,76,0.00,,,0.00,WUHU215HW,2013-03-21 14:30:00,
2013-03-21 09:34:00,21.3,14.9,30.04,SSE,158,0.0,0.0,76,0.00,,,0.00,WUHU215HW,2013-03-21 14:34:00,
2013-03-21 09:35:00,21.3,14.9,30.04,SSE,158,0.0,0.0,76,0.00,,,0.00,WUHU215HW,2013-03-21 14:35:00,
2013-03-21 09:36:00,21.3,14.9,30.04,SSE,158,0.0,0.0,76,0.00,,,0.00,WUHU215HW,2013-03-21 14:36:00,
2013-03-21 09:38:00,21.4,15.0,30.04,ENE,68,0.0,0.0,76,0.00,,,0.00,WUHU215HW,2013-03-21 14:38:00,
2013-03-21 09:42:00,21.2,14.8,30.04,ENE,68,0.0,0.0,76,0.00,,,0.00,WUHU215HW,2013-03-21 14:42:00,
2013-03-21 09:43:00,21.1,14.8,30.04,SSE,158,0.0,0.0,76,0.00,,,0.00,WUHU215HW,2013-03-21 14:43:00,
2013-03-21 09:44:00,21.1,14.7,30.04,SSE,158,0.0,0.0,76,0.00,,,0.00,WUHU215HW,2013-03-21 14:44:00,
2013-03-21 09:47:00,21.1,14.8,30.04,SSE,158,0.0,0.0,76,0.00,,,0.00,WUHU215HW,2013-03-21 14:47:00,
2013-03-21 09:49:00,21.2,14.6,30.04,SSE,158,0.0,0.0,75,0.00,,,0.00,WUHU215HW,2013-03-21 14:49:00,
2013-03-21 09:52:00,21.1,14.4,30.04,SW,225,0.0,0.0,75,0.00,,,0.00,WUHU215HW,2013-03-21 14:52:00,
2013-03-21 09:54:00,21.3,14.6,30.04,SW,225,0.0,0.0,75,0.00,,,0.00,WUHU215HW,2013-03-21 14:54:00,
2013-03-21 09:57:00,21.1,14.5,30.04,SW,225,0.0,0.0,75,0.00,,,0.00,WUHU215HW,2013-03-21 14:57:00,
2013-03-21 09:58:00,21.5,14.8,30.04,SW,225,0.0,0.0,75,0.00,,,0.00,WUHU215HW,2013-03-21 14:58:00,
2013-03-21 10:02:00,21.3,14.6,30.04,SW,225,0.0,0.0,75,0.00,,,0.00,WUHU215HW,2013-03-21 15:02:00,
2013-03-21 10:03:00,21.3,14.6,30.04,SW,225,0.0,0.0,75,0.00,,,0.00,WUHU215HW,2013-03-21 15:03:00,
2013-03-21 10:04:00,21.4,14.8,30.04,SW,225,0.0,0.0,75,0.00,,,0.00,WUHU215HW,2013-03-21 15:04:00,
2013-03-21 10:07:00,21.3,14.6,30.04,SW,225,0.0,0.0,75,0.00,,,0.00,WUHU215HW,2013-03-21 15:07:00,
2013-03-21 10:10:00,21.1,14.2,30.04,SW,225,0.0,0.0,74,0.00,,,0.00,WUHU215HW,2013-03-21 15:10:00,
2013-03-21 10:11:00,21.4,14.4,30.04,SW,225,0.0,0.0,74,0.00,,,0.00,WUHU215HW,2013-03-21 15:11:00,
2013-03-21 10:12:00,21.4,14.4,30.04,SW,225,0.0,0.0,74,0.00,,,0.00,WUHU215HW,2013-03-21 15:12:00,
2013-03-21 10:13:00,21.3,14.4,30.04,SW,225,0.0,0.0,74,0.00,,,0.00,WUHU215HW,2013-03-21 15:13:00,
2013-03-21 10:18:00,21.1,14.1,30.04,NE,45,0.0,0.0,74,0.00,,,0.00,WUHU215HW,2013-03-21 15:18:00,
2013-03-21 10:20:00,21.4,14.4,30.04,ESE,113,0.0,0.0,74,0.00,,,0.00,WUHU215HW,2013-03-21 15:20:00,
2013-03-21 10:22:00,21.5,14.6,30.04,ESE,113,0.0,0.0,74,0.00,,,0.00,WUHU215HW,2013-03-21 15:22:00,
2013-03-21 10:25:00,21.4,14.4,30.04,ESE,113,0.0,0.0,74,0.00,,,0.00,WUHU215HW,2013-03-21 15:25:00,
2013-03-21 10:26:00,21.4,14.4,30.04,ESE,113,0.0,0.0,74,0.00,,,0.00,WUHU215HW,2013-03-21 15:26:00,
2013-03-21 10:31:00,21.4,14.1,30.04,ESE,113,0.0,0.0,73,0.00,,,0.00,WUHU215HW,2013-03-21 15:31:00,
2013-03-21 10:32:00,21.3,14.0,30.04,ESE,113,0.0,0.0,73,0.00,,,0.00,WUHU215HW,2013-03-21 15:32:00,
2013-03-21 10:35:00,21.3,14.0,30.04,SE,135,0.0,0.0,73,0.00,,,0.00,WUHU215HW,2013-03-21 15:35:00,
2013-03-21 10:37:00,21.4,14.1,30.04,NE,45,0.0,0.0,73,0.00,,,0.00,WUHU215HW,2013-03-21 15:37:00,
2013-03-21 10:39:00,21.5,14.3,30.04,NE,45,0.0,0.0,73,0.00,,,0.00,WUHU215HW,2013-03-21 15:39:00,
2013-03-21 10:41:00,21.7,14.4,30.04,NE,45,0.0,0.0,73,0.00,,,0.00,WUHU215HW,2013-03-21 15:41:00,
2013-03-21 10:44:00,21.5,14.3,30.04,ESE,113,0.0,0.0,73,0.00,,,0.00,WUHU215HW,2013-03-21 15:44:00,
2013-03-21 10:48:00,21.4,14.1,30.04,ENE,68,0.0,0.0,73,0.00,,,0.00,WUHU215HW,2013-03-21 15:48:00,
2013-03-21 10:50:00,21.8,14.5,30.04,East,90,0.0,0.0,73,0.00,,,0.00,WUHU215HW,2013-03-21 15:50:00,
2013-03-21 10:53:00,21.9,14.3,30.04,NNE,23,0.0,0.0,72,0.00,,,0.00,WUHU215HW,2013-03-21 15:53:00,
2013-03-21 10:55:00,21.9,14.3,30.04,NNE,23,0.0,0.0,72,0.00,,,0.00,WUHU215HW,2013-03-21 15:55:00,
2013-03-21 10:56:00,21.8,14.2,30.04,SSE,158,0.0,0.0,72,0.00,,,0.00,WUHU215HW,2013-03-21 15:56:00,
2013-03-21 10:57:00,21.8,14.2,30.04,SSE,158,0.0,0.0,72,0.00,,,0.00,WUHU215HW,2013-03-21 15:57:00,
2013-03-21 10:58:00,22.0,14.4,30.04,SSE,158,0.0,0.0,72,0.00,,,0.00,WUHU215HW,2013-03-21 15:58:00,
2013-03-21 11:01:00,21.9,13.9,30.04,SSE,158,0.0,0.0,71,0.00,,,0.00,WUHU215HW,2013-03-21 16:01:00,
2013-03-21 11:03:00,21.8,13.9,30.04,SSE,158,0.0,0.0,71,0.00,,,0.00,WUHU215HW,2013-03-21 16:03:00,
2013-03-21 11:06:00,21.7,13.8,30.04,SSE,158,0.0,0.0,71,0.00,,,0.00,WUHU215HW,2013-03-21 16:06:00,
2013-03-21 11:07:00,21.7,13.8,30.04,SSE,158,0.0,0.0,71,0.00,,,0.00,WUHU215HW,2013-03-21 16:07:00,
2013-03-21 11:09:00,21.8,13.9,30.04,SSE,158,0.0,0.0,71,0.00,,,0.00,WUHU215HW,2013-03-21 16:09:00,
2013-03-21 11:10:00,21.8,13.9,30.04,SSE,158,0.0,0.0,71,0.00,,,0.00,WUHU215HW,2013-03-21 16:10:00,
2013-03-21 11:12:00,21.7,13.8,30.04,SSE,158,0.0,0.0,71,0.00,,,0.00,WUHU215HW,2013-03-21 16:12:00,
2013-03-21 11:14:00,21.8,13.9,30.04,SSE,158,0.0,0.0,71,0.00,,,0.00,WUHU215HW,2013-03-21 16:14:00,
2013-03-21 11:17:00,21.7,13.8,30.04,ENE,68,0.0,0.0,71,0.00,,,0.00,WUHU215HW,2013-03-21 16:17:00,
2013-03-21 11:19:00,21.6,13.7,30.04,ENE,68,0.0,0.0,71,0.00,,,0.00,WUHU215HW,2013-03-21 16:19:00,
2013-03-21 11:20:00,22.0,14.1,30.04,NW,315,0.0,0.0,71,0.00,,,0.00,WUHU215HW,2013-03-21 16:20:00,
2013-03-21 11:23:00,21.7,13.8,30.04,East,90,0.0,0.0,71,0.00,,,0.00,WUHU215HW,2013-03-21 16:23:00,
2013-03-21 11:24:00,21.7,13.8,30.04,SE,135,0.0,0.0,71,0.00,,,0.00,WUHU215HW,2013-03-21 16:24:00,
2013-03-21 11:27:00,21.8,13.9,30.04,SE,135,0.0,0.0,71,0.00,,,0.00,WUHU215HW,2013-03-21 16:27:00,
2013-03-21 11:28:00,21.8,13.9,30.04,SE,135,0.0,0.0,71,0.00,,,0.00,WUHU215HW,2013-03-21 16:28:00,
2013-03-21 11:30:00,21.8,13.8,30.04,SE,135,0.0,0.0,71,0.00,,,0.00,WUHU215HW,2013-03-21 16:30:00,
2013-03-21 11:32:00,21.7,13.8,30.04,SE,135,0.0,0.0,71,0.00,,,0.00,WUHU215HW,2013-03-21 16:32:00,
2013-03-21 11:33:00,21.7,13.8,30.04,NE,45,0.0,0.0,71,0.00,,,0.00,WUHU215HW,2013-03-21 16:33:00,
2013-03-21 11:34:00,21.7,13.8,30.04,NE,45,0.0,0.0,71,0.00,,,0.00,WUHU215HW,2013-03-21 16:34:00,
2013-03-21 11:35:00,21.8,13.9,30.04,NE,45,0.0,0.0,71,0.00,,,0.00,WUHU215HW,2013-03-21 16:35:00,
2013-03-21 11:37:00,21.8,13.9,30.04,NE,45,0.0,0.0,71,0.00,,,0.00,WUHU215HW,2013-03-21 16:37:00,
2013-03-21 11:40:00,21.7,13.5,30.04,NE,45,0.0,0.0,70,0.00,,,0.00,WUHU215HW,2013-03-21 16:40:00,
2013-03-21 11:42:00,22.2,14.0,30.04,NE,45,0.0,0.0,70,0.00,,,0.00,WUHU215HW,2013-03-21 16:42:00,
2013-03-21 11:43:00,22.4,14.1,30.04,NE,45,0.0,0.0,70,0.00,,,0.00,WUHU215HW,2013-03-21 16:43:00,
2013-03-21 11:47:00,22.5,14.2,30.04,NE,45,0.0,0.0,70,0.00,,,0.00,WUHU215HW,2013-03-21 16:47:00,
2013-03-21 11:48:00,22.5,14.2,30.04,NE,45,0.0,0.0,70,0.00,,,0.00,WUHU215HW,2013-03-21 16:48:00,
2013-03-21 11:51:00,22.4,14.2,30.04,ESE,113,0.0,0.0,70,0.00,,,0.00,WUHU215HW,2013-03-21 16:51:00,
2013-03-21 11:53:00,22.4,14.2,30.04,ESE,113,0.0,0.0,70,0.00,,,0.00,WUHU215HW,2013-03-21 16:53:00,
2013-03-21 11:56:00,22.6,14.3,30.04,ESE,113,0.0,0.0,70,0.00,,,0.00,WUHU215HW,2013-03-21 16:56:00,
2013-03-21 11:57:00,22.6,14.3,30.04,ESE,113,0.0,0.0,70,0.00,,,0.00,WUHU215HW,2013-03-21 16:57:00,
2013-03-21 11:58:00,22.6,14.4,30.04,ESE,113,0.0,0.0,70,0.00,,,0.00,WUHU215HW,2013-03-21 16:58:00,
2013-03-21 12:03:00,23.2,14.6,30.04,ESE,113,0.0,0.0,69,0.00,,,0.00,WUHU215HW,2013-03-21 17:03:00,
2013-03-21 12:04:00,23.2,14.6,30.04,ESE,113,0.0,0.0,69,0.00,,,0.00,WUHU215HW,2013-03-21 17:04:00,
2013-03-21 12:09:00,23.1,14.5,30.04,South,180,0.0,0.0,69,0.00,,,0.00,WUHU215HW,2013-03-21 17:09:00,
2013-03-21 12:10:00,23.1,14.5,30.04,South,180,0.0,0.0,69,0.00,,,0.00,WUHU215HW,2013-03-21 17:10:00,
2013-03-21 12:11:00,23.6,15.0,30.04,South,180,0.0,0.0,69,0.00,,,0.00,WUHU215HW,2013-03-21 17:11:00,
2013-03-21 12:16:00,24.2,15.2,30.04,NNE,23,0.0,0.0,68,0.00,,,0.00,WUHU215HW,2013-03-21 17:16:00,
2013-03-21 12:17:00,24.2,15.2,30.04,NNW,338,0.0,0.0,68,0.00,,,0.00,WUHU215HW,2013-03-21 17:17:00,
2013-03-21 12:18:00,24.1,15.2,30.04,NNW,338,0.0,0.0,68,0.00,,,0.00,WUHU215HW,2013-03-21 17:18:00,
2013-03-21 12:21:00,24.6,15.3,30.04,NNW,338,0.0,0.0,67,0.00,,,0.00,WUHU215HW,2013-03-21 17:21:00,
2013-03-21 12:24:00,25.1,15.8,30.04,NNW,338,0.0,0.0,67,0.00,,,0.00,WUHU215HW,2013-03-21 17:24:00,
2013-03-21 12:26:00,25.1,15.7,30.04,NNW,338,0.0,0.0,67,0.00,,,0.00,WUHU215HW,2013-03-21 17:26:00,
2013-03-21 12:28:00,25.3,15.9,30.04,ESE,113,0.0,0.0,67,0.00,,,0.00,WUHU215HW,2013-03-21 17:28:00,
2013-03-21 12:32:00,25.7,15.6,30.04,NE,45,0.0,0.0,65,0.00,,,0.00,WUHU215HW,2013-03-21 17:32:00,
2013-03-21 12:34:00,25.7,15.6,30.04,NE,45,0.0,0.0,65,0.00,,,0.00,WUHU215HW,2013-03-21 17:34:00,
2013-03-21 12:37:00,26.0,15.9,30.04,ENE,68,0.0,0.0,65,0.00,,,0.00,WUHU215HW,2013-03-21 17:37:00,
2013-03-21 12:38:00,26.0,15.9,30.04,ENE,68,0.0,0.0,65,0.00,,,0.00,WUHU215HW,2013-03-21 17:38:00,
2013-03-21 12:39:00,25.9,15.8,30.04,ENE,68,0.0,0.0,65,0.00,,,0.00,WUHU215HW,2013-03-21 17:39:00,
2013-03-21 12:43:00,25.9,15.8,30.04,South,180,0.0,0.0,65,0.00,,,0.00,WUHU215HW,2013-03-21 17:43:00,
2013-03-21 12:44:00,25.9,15.8,30.04,South,180,0.0,0.0,65,0.00,,,0.00,WUHU215HW,2013-03-21 17:44:00,
2013-03-21 12:46:00,25.7,15.6,30.04,SSE,158,0.0,0.0,65,0.00,,,0.00,WUHU215HW,2013-03-21 17:46:00,
2013-03-21 12:47:00,25.5,15.5,30.04,NNE,23,1.1,1.1,65,0.00,,,0.00,WUHU215HW,2013-03-21 17:47:00,
2013-03-21 12:49:00,25.5,15.5,30.04,NNE,23,1.1,1.1,65,0.00,,,0.00,WUHU215HW,2013-03-21 17:49:00,
2013-03-21 12:53:00,25.4,15.3,30.04,NNE,23,1.1,1.1,65,0.00,,,0.00,WUHU215HW,2013-03-21 17:53:00,
2013-03-21 12:54:00,25.4,15.3,30.04,SE,135,0.0,1.1,65,0.00,,,0.00,WUHU215HW,2013-03-21 17:54:00,
2013-03-21 12:55:00,25.4,15.3,30.04,SE,135,0.0,1.1,65,0.00,,,0.00,WUHU215HW,2013-03-21 17:55:00,
2013-03-21 12:56:00,24.9,14.8,30.04,ENE,68,0.0,1.1,65,0.00,,,0.00,WUHU215HW,2013-03-21 17:56:00,
2013-03-21 12:59:00,24.9,14.9,30.04,ENE,68,0.0,1.1,65,0.00,,,0.00,WUHU215HW,2013-03-21 17:59:00,
2013-03-21 13:02:00,24.8,14.7,30.04,ENE,68,0.0,0.0,65,0.00,,,0.00,WUHU215HW,2013-03-21 18:02:00,
2013-03-21 13:04:00,24.8,14.7,30.04,ENE,68,0.0,0.0,65,0.00,,,0.00,WUHU215HW,2013-03-21 18:04:00,
2013-03-21 13:06:00,24.8,14.8,30.04,ENE,68,0.0,0.0,65,0.00,,,0.00,WUHU215HW,2013-03-21 18:06:00,
2013-03-21 13:10:00,24.8,15.2,30.04,NNE,23,0.6,0.6,66,0.00,,,0.00,WUHU215HW,2013-03-21 18:10:00,
2013-03-21 13:11:00,25.1,15.0,30.04,NNE,23,0.6,0.6,65,0.00,,,0.00,WUHU215HW,2013-03-21 18:11:00,
2013-03-21 13:13:00,25.1,15.0,30.04,SSE,158,0.0,0.6,65,0.00,,,0.00,WUHU215HW,2013-03-21 18:13:00,
2013-03-21 13:14:00,25.1,15.0,30.04,SSE,158,0.0,0.6,65,0.00,,,0.00,WUHU215HW,2013-03-21 18:14:00,
2013-03-21 13:16:00,25.1,15.1,30.04,SW,225,0.0,0.6,65,0.00,,,0.00,WUHU215HW,2013-03-21 18:16:00,
2013-03-21 13:19:00,25.7,15.6,30.04,SW,225,0.0,0.6,65,0.00,,,0.00,WUHU215HW,2013-03-21 18:19:00,
2013-03-21 13:20:00,25.7,15.6,30.04,SW,225,0.0,0.6,65,0.00,,,0.00,WUHU215HW,2013-03-21 18:20:00,
2013-03-21 13:21:00,25.7,15.6,30.04,SW,225,0.0,0.0,65,0.00,,,0.00,WUHU215HW,2013-03-21 18:21:00,
2013-03-21 13:24:00,26.4,15.5,30.04,NE,45,0.0,0.0,63,0.00,,,0.00,WUHU215HW,2013-03-21 18:24:00,
2013-03-21 13:25:00,26.4,15.5,30.04,NE,45,0.0,0.0,63,0.00,,,0.00,WUHU215HW,2013-03-21 18:25:00,
2013-03-21 13:26:00,27.3,16.4,30.04,NE,45,0.0,0.0,63,0.00,,,0.00,WUHU215HW,2013-03-21 18:26:00,
2013-03-21 13:27:00,27.3,16.4,30.04,NE,45,0.0,0.0,63,0.00,,,0.00,WUHU215HW,2013-03-21 18:27:00,
2013-03-21 13:31:00,27.4,16.5,30.04,South,180,0.0,0.0,63,0.00,,,0.00,WUHU215HW,2013-03-21 18:31:00,
2013-03-21 13:32:00,27.4,16.5,30.04,South,180,0.0,0.0,63,0.00,,,0.00,WUHU215HW,2013-03-21 18:32:00,
2013-03-21 13:33:00,27.5,16.6,30.04,South,180,0.0,0.0,63,0.00,,,0.00,WUHU215HW,2013-03-21 18:33:00,
2013-03-21 13:36:00,28.9,17.2,30.04,NE,45,0.0,0.0,61,0.00,,,0.00,WUHU215HW,2013-03-21 18:36:00,
2013-03-21 13:38:00,29.0,17.2,30.04,NE,45,0.0,0.0,61,0.00,,,0.00,WUHU215HW,2013-03-21 18:38:00,
2013-03-21 13:39:00,29.2,17.5,30.04,NE,45,0.0,0.0,61,0.00,,,0.00,WUHU215HW,2013-03-21 18:39:00,
2013-03-21 13:40:00,29.2,17.5,30.04,NE,45,0.0,0.0,61,0.00,,,0.00,WUHU215HW,2013-03-21 18:40:00,
2013-03-21 13:42:00,29.5,17.7,30.04,NE,45,0.0,0.0,61,0.00,,,0.00,WUHU215HW,2013-03-21 18:42:00,
2013-03-21 13:43:00,29.5,17.7,30.04,NE,45,0.0,0.0,61,0.00,,,0.00,WUHU215HW,2013-03-21 18:43:00,
2013-03-21 13:44:00,29.5,17.8,30.04,NE,45,0.0,0.0,61,0.00,,,0.00,WUHU215HW,2013-03-21 18:44:00,
2013-03-21 13:45:00,29.6,17.5,30.04,SSE,158,0.0,0.0,60,0.00,,,0.00,WUHU215HW,2013-03-21 18:45:00,
2013-03-21 13:48:00,29.7,17.2,30.04,SSE,158,0.0,0.0,59,0.00,,,0.00,WUHU215HW,2013-03-21 18:48:00,
2013-03-21 13:49:00,29.7,17.2,30.04,NE,45,0.0,0.0,59,0.00,,,0.00,WUHU215HW,2013-03-21 18:49:00,
2013-03-21 13:50:00,29.8,17.2,30.04,NE,45,0.0,0.0,59,0.00,,,0.00,WUHU215HW,2013-03-21 18:50:00,
2013-03-21 13:54:00,29.9,17.3,30.04,NE,45,0.0,0.0,59,0.02,,,0.02,WUHU215HW,2013-03-21 18:54:00,
2013-03-21 13:56:00,29.6,16.7,30.04,NE,45,0.0,0.0,58,0.02,,,0.02,WUHU215HW,2013-03-21 18:56:00,
2013-03-21 13:58:00,29.7,16.7,30.04,NE,45,0.0,0.0,58,0.02,,,0.02,WUHU215HW,2013-03-21 18:58:00,
2013-03-21 14:00:00,29.8,16.8,30.04,NE,45,0.0,0.0,58,0.02,,,0.02,WUHU215HW,2013-03-21 19:00:00,
2013-03-21 14:01:00,29.8,16.8,30.04,NE,45,0.0,0.0,58,0.02,,,0.02,WUHU215HW,2013-03-21 19:01:00,
2013-03-21 14:02:00,29.8,16.9,30.04,NE,45,0.0,0.0,58,0.02,,,0.02,WUHU215HW,2013-03-21 19:02:00,
2013-03-21 14:05:00,29.9,16.9,30.04,NE,45,0.0,0.0,58,0.02,,,0.02,WUHU215HW,2013-03-21 19:05:00,
2013-03-21 14:07:00,29.4,16.4,30.04,NE,45,0.0,0.0,58,0.02,,,0.02,WUHU215HW,2013-03-21 19:07:00,
2013-03-21 14:09:00,29.4,16.5,30.04,NE,45,0.0,0.0,58,0.02,,,0.02,WUHU215HW,2013-03-21 19:09:00,
2013-03-21 14:10:00,29.5,16.5,30.04,NE,45,0.0,0.0,58,0.02,,,0.02,WUHU215HW,2013-03-21 19:10:00,
2013-03-21 14:12:00,29.4,16.5,30.04,NE,45,0.0,0.0,58,0.02,,,0.02,WUHU215HW,2013-03-21 19:12:00,
2013-03-21 14:14:00,29.3,16.4,30.04,SE,135,0.0,0.0,58,0.02,,,0.02,WUHU215HW,2013-03-21 19:14:00,
2013-03-21 14:16:00,29.2,16.7,30.04,SSE,158,0.0,0.0,59,0.02,,,0.02,WUHU215HW,2013-03-21 19:16:00,
2013-03-21 14:22:00,29.4,16.5,30.04,SSW,203,0.0,1.3,58,0.02,,,0.02,WUHU215HW,2013-03-21 19:22:00,
2013-03-21 14:26:00,29.5,16.6,30.04,NW,315,0.0,1.3,58,0.02,,,0.02,WUHU215HW,2013-03-21 19:26:00,
2013-03-21 14:27:00,29.6,16.6,30.04,NW,315,0.0,1.3,58,0.02,,,0.02,WUHU215HW,2013-03-21 19:27:00,
2013-03-21 14:32:00,29.1,16.6,30.04,North,0,4.2,4.2,59,0.02,,,0.02,WUHU215HW,2013-03-21 19:32:00,
2013-03-21 14:33:00,29.1,16.6,30.04,North,0,4.2,4.2,59,0.02,,,0.02,WUHU215HW,2013-03-21 19:33:00,
2013-03-21 14:36:00,29.2,16.7,30.04,North,0,4.2,4.2,59,0.02,,,0.02,WUHU215HW,2013-03-21 19:36:00,
2013-03-21 14:38:00,29.3,16.8,30.04,North,0,4.2,4.2,59,0.02,,,0.02,WUHU215HW,2013-03-21 19:38:00,
2013-03-21 14:40:00,29.4,16.9,30.04,North,0,4.2,4.2,59,0.02,,,0.02,WUHU215HW,2013-03-21 19:40:00,
2013-03-21 14:43:00,29.5,17.0,30.04,East,90,0.4,4.2,59,0.02,,,0.02,WUHU215HW,2013-03-21 19:43:00,
2013-03-21 14:44:00,29.6,17.0,30.04,East,90,0.4,4.2,59,0.02,,,0.02,WUHU215HW,2013-03-21 19:44:00,
2013-03-21 14:46:00,29.8,17.3,30.04,NNE,23,0.6,4.2,59,0.02,,,0.02,WUHU215HW,2013-03-21 19:46:00,
2013-03-21 14:49:00,30.1,17.5,30.04,ESE,113,2.2,2.2,59,0.02,,,0.02,WUHU215HW,2013-03-21 19:49:00,
2013-03-21 14:51:00,30.2,17.6,30.04,ESE,113,2.2,2.2,59,0.02,,,0.02,WUHU215HW,2013-03-21 19:51:00,
2013-03-21 14:53:00,30.7,18.4,30.04,ESE,113,2.2,2.2,60,0.00,,,0.02,WUHU215HW,2013-03-21 19:53:00,
2013-03-21 14:54:00,30.9,18.3,30.04,ESE,113,2.2,2.2,59,0.00,,,0.02,WUHU215HW,2013-03-21 19:54:00,
2013-03-21 14:55:00,30.9,18.3,30.04,ESE,113,2.2,2.2,59,0.00,,,0.02,WUHU215HW,2013-03-21 19:55:00,
2013-03-21 14:57:00,31.2,18.6,30.04,SSW,203,0.0,2.2,59,0.00,,,0.02,WUHU215HW,2013-03-21 19:57:00,
2013-03-21 14:59:00,31.3,18.7,30.04,SSW,203,0.0,2.2,59,0.00,,,0.02,WUHU215HW,2013-03-21 19:59:00,
2013-03-21 15:00:00,31.5,18.4,30.04,SSW,203,0.0,2.2,58,0.00,,,0.02,WUHU215HW,2013-03-21 20:00:00,
2013-03-21 15:01:00,31.5,18.5,30.04,SSE,158,0.4,2.2,58,0.00,,,0.02,WUHU215HW,2013-03-21 20:01:00,
2013-03-21 15:04:00,31.6,18.6,30.04,SSE,158,0.4,0.4,58,0.00,,,0.02,WUHU215HW,2013-03-21 20:04:00,
2013-03-21 15:05:00,31.7,18.6,30.04,SSE,158,0.4,0.4,58,0.00,,,0.02,WUHU215HW,2013-03-21 20:05:00,
2013-03-21 15:07:00,32.0,19.3,30.04,SSE,158,4.4,4.4,59,0.00,,,0.02,WUHU215HW,2013-03-21 20:07:00,
2013-03-21 15:10:00,32.3,19.6,30.04,SSE,158,4.4,4.4,59,0.00,,,0.02,WUHU215HW,2013-03-21 20:10:00,
2013-03-21 15:12:00,32.6,19.5,30.04,SSW,203,2.4,4.4,58,0.00,,,0.02,WUHU215HW,2013-03-21 20:12:00,
2013-03-21 15:14:00,33.0,19.9,30.04,SSW,203,2.4,4.4,58,0.00,,,0.02,WUHU215HW,2013-03-21 20:14:00,
2013-03-21 15:16:00,33.3,20.1,30.04,South,180,0.0,4.4,58,0.00,,,0.02,WUHU215HW,2013-03-21 20:16:00,
2013-03-21 15:17:00,33.4,20.2,30.04,SSE,158,0.0,4.4,58,0.00,,,0.02,WUHU215HW,2013-03-21 20:17:00,
2013-03-21 15:19:00,33.8,20.7,30.04,SSE,158,0.0,2.4,58,0.00,,,0.02,WUHU215HW,2013-03-21 20:19:00,
2013-03-21 15:20:00,33.9,20.3,30.04,NW,315,0.0,2.4,57,0.00,,,0.02,WUHU215HW,2013-03-21 20:20:00,
2013-03-21 15:22:00,34.0,20.4,30.04,NE,45,0.6,2.4,57,0.00,,,0.02,WUHU215HW,2013-03-21 20:22:00,
2013-03-21 15:24:00,33.9,20.3,30.04,NE,45,0.6,0.6,57,0.00,,,0.02,WUHU215HW,2013-03-21 20:24:00,
2013-03-21 15:25:00,33.9,20.3,30.04,NE,45,0.6,0.6,57,0.00,,,0.02,WUHU215HW,2013-03-21 20:25:00,
2013-03-21 15:27:00,34.0,20.4,30.04,NE,45,0.6,0.6,57,0.00,,,0.02,WUHU215HW,2013-03-21 20:27:00,
2013-03-21 15:30:00,34.4,20.7,30.04,SSE,158,1.5,1.5,57,0.00,,,0.02,WUHU215HW,2013-03-21 20:30:00,
2013-03-21 15:32:00,34.5,20.8,30.04,SSE,158,1.5,1.5,57,0.00,,,0.02,WUHU215HW,2013-03-21 20:32:00,
2013-03-21 15:33:00,34.5,20.9,30.04,SSE,158,1.5,1.5,57,0.00,,,0.02,WUHU215HW,2013-03-21 20:33:00,
2013-03-21 15:36:00,34.7,21.0,30.04,North,0,2.0,2.0,57,0.00,,,0.02,WUHU215HW,2013-03-21 20:36:00,
2013-03-21 15:38:00,34.8,21.1,30.04,North,0,2.0,2.0,57,0.00,,,0.02,WUHU215HW,2013-03-21 20:38:00,
2013-03-21 15:42:00,35.0,21.3,30.04,SE,135,2.4,2.4,57,0.00,,,0.02,WUHU215HW,2013-03-21 20:42:00,
2013-03-21 15:43:00,35.0,21.4,30.04,SE,142,2.2,2.4,57,0.00,,,0.02,WUHU215HW,2013-03-21 20:43:00,
2013-03-21 15:45:00,35.4,21.7,30.04,SSE,158,2.0,2.4,57,0.00,,,0.02,WUHU215HW,2013-03-21 20:45:00,
2013-03-21 15:47:00,35.5,21.4,30.04,ENE,68,0.0,2.4,56,0.00,,,0.02,WUHU215HW,2013-03-21 20:47:00,
2013-03-21 15:49:00,35.8,21.7,30.04,SE,135,0.0,2.4,56,0.00,,,0.02,WUHU215HW,2013-03-21 20:49:00,
2013-03-21 15:50:00,36.1,21.9,30.04,SE,135,0.0,2.4,56,0.00,,,0.02,WUHU215HW,2013-03-21 20:50:00,
2013-03-21 15:55:00,36.5,21.9,30.04,SSE,158,0.8,0.8,55,0.00,,,0.02,WUHU215HW,2013-03-21 20:55:00,
2013-03-21 15:56:00,36.6,21.5,30.04,SSE,158,0.8,0.8,54,0.00,,,0.02,WUHU215HW,2013-03-21 20:56:00,
2013-03-21 15:57:00,36.6,21.6,30.04,SSE,158,0.8,0.8,54,0.00,,,0.02,WUHU215HW,2013-03-21 20:57:00,
2013-03-21 16:01:00,36.9,21.8,30.04,SSE,158,0.0,0.8,54,0.00,,,0.02,WUHU215HW,2013-03-21 21:01:00,
2013-03-21 16:02:00,36.9,21.8,30.04,NNE,23,0.0,0.8,54,0.00,,,0.02,WUHU215HW,2013-03-21 21:02:00,
2013-03-21 16:06:00,37.1,21.5,30.04,SE,135,1.1,1.1,53,0.00,,,0.02,WUHU215HW,2013-03-21 21:06:00,
2013-03-21 16:08:00,37.4,21.8,30.04,SE,135,1.1,1.1,53,0.00,,,0.02,WUHU215HW,2013-03-21 21:08:00,
2013-03-21 16:09:00,37.4,21.8,30.04,SE,135,1.1,1.1,53,0.00,,,0.02,WUHU215HW,2013-03-21 21:09:00,
2013-03-21 16:12:00,37.2,21.6,30.04,SE,135,1.1,1.1,53,0.00,,,0.02,WUHU215HW,2013-03-21 21:12:00,
2013-03-21 16:14:00,37.2,21.6,30.04,NNE,23,1.7,1.7,53,0.00,,,0.02,WUHU215HW,2013-03-21 21:14:00,
2013-03-21 16:15:00,37.1,21.5,30.04,NNE,23,1.7,1.7,53,0.00,,,0.02,WUHU215HW,2013-03-21 21:15:00,
2013-03-21 16:16:00,37.1,21.5,30.04,NNE,23,1.7,1.7,53,0.00,,,0.02,WUHU215HW,2013-03-21 21:16:00,
2013-03-21 16:18:00,37.0,21.4,30.04,ESE,113,0.0,1.7,53,0.00,,,0.02,WUHU215HW,2013-03-21 21:18:00,
2013-03-21 16:22:00,36.8,21.2,30.04,East,90,0.6,1.7,53,0.00,,,0.02,WUHU215HW,2013-03-21 21:22:00,
2013-03-21 16:23:00,36.7,21.2,30.04,East,90,0.6,1.7,53,0.00,,,0.02,WUHU215HW,2013-03-21 21:23:00,
2013-03-21 16:28:00,36.5,20.9,30.04,SE,135,1.5,1.5,53,0.00,,,0.02,WUHU215HW,2013-03-21 21:28:00,
2013-03-21 16:29:00,36.4,20.9,30.04,SE,135,1.5,1.5,53,0.00,,,0.02,WUHU215HW,2013-03-21 21:29:00,
2013-03-21 16:31:00,36.3,20.8,30.04,SE,135,1.5,1.5,53,0.00,,,0.02,WUHU215HW,2013-03-21 21:31:00,
2013-03-21 16:34:00,36.2,20.2,30.04,SE,135,1.5,1.5,52,0.00,,,0.02,WUHU215HW,2013-03-21 21:34:00,
2013-03-21 16:36:00,36.0,20.0,30.04,SSE,158,0.0,1.5,52,0.00,,,0.02,WUHU215HW,2013-03-21 21:36:00,
2013-03-21 16:38:00,35.9,19.9,30.04,SSE,158,0.0,1.5,52,0.00,,,0.02,WUHU215HW,2013-03-21 21:38:00,
2013-03-21 16:39:00,35.6,19.7,30.04,SSE,158,0.0,1.5,52,0.00,,,0.02,WUHU215HW,2013-03-21 21:39:00,
2013-03-21 16:42:00,35.5,19.6,30.04,SSE,158,0.0,1.5,52,0.00,,,0.02,WUHU215HW,2013-03-21 21:42:00,
2013-03-21 16:43:00,35.5,19.5,30.04,SSE,158,0.0,0.0,52,0.00,,,0.02,WUHU215HW,2013-03-21 21:43:00,
2013-03-21 16:44:00,35.4,19.5,30.04,SSE,158,0.0,0.0,52,0.00,,,0.02,WUHU215HW,2013-03-21 21:44:00,
2013-03-21 16:47:00,35.1,19.2,30.04,NE,45,2.0,2.0,52,0.00,,,0.02,WUHU215HW,2013-03-21 21:47:00,
2013-03-21 16:49:00,34.8,18.9,30.04,NE,45,2.0,2.0,52,0.00,,,0.02,WUHU215HW,2013-03-21 21:49:00,
2013-03-21 16:51:00,34.7,18.9,30.04,NE,45,2.0,2.0,52,0.00,,,0.02,WUHU215HW,2013-03-21 21:51:00,
2013-03-21 16:52:00,34.7,18.8,30.04,NE,45,2.0,2.0,52,0.00,,,0.02,WUHU215HW,2013-03-21 21:52:00,
2013-03-21 16:55:00,34.6,18.7,30.04,North,0,0.0,2.0,52,0.00,,,0.02,WUHU215HW,2013-03-21 21:55:00,
2013-03-21 16:57:00,34.0,18.2,30.04,North,0,0.0,2.0,52,0.00,,,0.02,WUHU215HW,2013-03-21 21:57:00,
2013-03-21 16:58:00,34.0,18.2,30.04,North,0,0.0,2.0,52,0.00,,,0.02,WUHU215HW,2013-03-21 21:58:00,
2013-03-21 17:00:00,33.7,17.9,30.04,North,0,0.0,2.0,52,0.00,,,0.02,WUHU215HW,2013-03-21 22:00:00,
2013-03-21 17:02:00,33.5,18.1,30.04,NNE,23,4.4,4.4,53,0.00,,,0.02,WUHU215HW,2013-03-21 22:02:00,
2013-03-21 17:05:00,33.4,17.6,30.04,NNE,23,4.4,4.4,52,0.00,,,0.02,WUHU215HW,2013-03-21 22:05:00,
2013-03-21 17:07:00,33.3,17.5,30.04,NNE,23,0.0,4.4,52,0.00,,,0.02,WUHU215HW,2013-03-21 22:07:00,
2013-03-21 17:08:00,33.3,17.5,30.04,NNE,23,0.0,4.4,52,0.00,,,0.02,WUHU215HW,2013-03-21 22:08:00,
2013-03-21 17:09:00,32.8,17.5,30.04,NNE,23,0.0,4.4,53,0.00,,,0.02,WUHU215HW,2013-03-21 22:09:00,
2013-03-21 17:11:00,32.7,17.4,30.04,SE,135,0.0,4.4,53,0.00,,,0.02,WUHU215HW,2013-03-21 22:11:00,
2013-03-21 17:12:00,32.7,17.4,30.04,SE,135,0.0,4.4,53,0.00,,,0.02,WUHU215HW,2013-03-21 22:12:00,
2013-03-21 17:13:00,32.5,17.2,30.04,North,0,0.0,4.4,53,0.00,,,0.02,WUHU215HW,2013-03-21 22:13:00,
2013-03-21 17:16:00,32.2,17.4,30.04,NNE,23,0.0,0.0,54,0.00,,,0.02,WUHU215HW,2013-03-21 22:16:00,
2013-03-21 17:17:00,32.2,17.4,30.04,NNE,23,0.0,0.0,54,0.00,,,0.02,WUHU215HW,2013-03-21 22:17:00,
2013-03-21 17:18:00,32.0,17.2,30.04,NNE,23,0.0,0.0,54,0.00,,,0.02,WUHU215HW,2013-03-21 22:18:00,
2013-03-21 17:20:00,31.9,17.2,30.04,NE,45,0.0,0.0,54,0.00,,,0.02,WUHU215HW,2013-03-21 22:20:00,
2013-03-21 17:23:00,31.9,17.6,30.04,NNE,23,0.0,0.0,55,0.00,,,0.02,WUHU215HW,2013-03-21 22:23:00,
2013-03-21 17:24:00,31.9,17.5,30.04,NE,45,1.3,1.3,55,0.00,,,0.02,WUHU215HW,2013-03-21 22:24:00,
2013-03-21 17:25:00,31.9,17.5,30.04,NE,45,1.3,1.3,55,0.00,,,0.02,WUHU215HW,2013-03-21 22:25:00,
2013-03-21 17:28:00,31.7,17.4,30.04,NE,45,1.3,1.3,55,0.00,,,0.02,WUHU215HW,2013-03-21 22:28:00,
2013-03-21 17:30:00,31.5,17.2,30.04,NE,45,1.3,1.3,55,0.00,,,0.02,WUHU215HW,2013-03-21 22:30:00,
2013-03-21 17:31:00,31.5,17.2,30.04,NE,45,1.3,1.3,55,0.00,,,0.02,WUHU215HW,2013-03-21 22:31:00,
2013-03-21 17:32:00,31.5,17.2,30.04,North,0,5.5,5.5,55,0.00,,,0.02,WUHU215HW,2013-03-21 22:32:00,
2013-03-21 17:35:00,31.7,17.4,30.04,North,0,5.5,5.5,55,0.00,,,0.02,WUHU215HW,2013-03-21 22:35:00,
2013-03-21 17:37:00,31.5,17.6,30.04,North,0,5.5,5.5,56,0.00,,,0.02,WUHU215HW,2013-03-21 22:37:00,
2013-03-21 17:38:00,31.5,17.6,30.04,North,0,5.5,5.5,56,0.00,,,0.02,WUHU215HW,2013-03-21 22:38:00,
2013-03-21 17:40:00,31.5,17.2,30.04,ENE,68,0.0,5.5,55,0.00,,,0.02,WUHU215HW,2013-03-21 22:40:00,
2013-03-21 17:42:00,31.5,17.6,30.04,NNE,23,0.0,5.5,56,0.00,,,0.02,WUHU215HW,2013-03-21 22:42:00,
2013-03-21 17:43:00,31.5,17.6,30.04,NE,45,0.6,5.5,56,0.00,,,0.02,WUHU215HW,2013-03-21 22:43:00,
2013-03-21 17:45:00,31.5,17.6,30.04,NE,45,0.6,5.5,56,0.00,,,0.02,WUHU215HW,2013-03-21 22:45:00,
2013-03-21 17:47:00,31.5,17.6,30.04,NE,45,0.6,0.6,56,0.00,,,0.02,WUHU215HW,2013-03-21 22:47:00,
2013-03-21 17:50:00,31.6,17.7,30.04,North,0,1.0,1.7,56,0.00,,,0.02,WUHU215HW,2013-03-21 22:50:00,
2013-03-21 17:51:00,31.6,18.1,30.04,North,0,0.6,1.7,57,0.00,,,0.02,WUHU215HW,2013-03-21 22:51:00,
2013-03-21 17:52:00,31.6,18.1,30.04,North,0,0.6,1.7,57,0.00,,,0.02,WUHU215HW,2013-03-21 22:52:00,
2013-03-21 17:55:00,31.6,18.2,30.04,North,0,0.6,1.7,57,0.00,,,0.02,WUHU215HW,2013-03-21 22:55:00,
2013-03-21 17:58:00,31.7,18.2,30.04,North,0,0.6,1.7,57,0.00,,,0.02,WUHU215HW,2013-03-21 22:58:00,
2013-03-21 17:59:00,31.7,18.2,30.04,North,0,0.6,0.6,57,0.00,,,0.02,WUHU215HW,2013-03-21 22:59:00,
2013-03-21 18:03:00,31.8,18.3,30.04,North,0,0.6,0.6,57,0.00,,,0.02,WUHU215HW,2013-03-21 23:03:00,
2013-03-21 18:04:00,31.8,18.3,30.04,NE,45,0.0,0.6,57,0.00,,,0.02,WUHU215HW,2013-03-21 23:04:00,
2013-03-21 18:05:00,31.8,18.3,30.04,NE,45,0.0,0.6,57,0.00,,,0.02,WUHU215HW,2013-03-21 23:05:00,
2013-03-21 18:07:00,31.9,18.4,30.04,NE,45,0.0,0.6,57,0.00,,,0.02,WUHU215HW,2013-03-21 23:07:00,
2013-03-21 18:09:00,31.9,18.4,30.04,NE,45,0.0,0.6,57,0.00,,,0.02,WUHU215HW,2013-03-21 23:09:00,
2013-03-21 18:11:00,32.0,18.5,30.04,NE,45,0.0,0.6,57,0.00,,,0.02,WUHU215HW,2013-03-21 23:11:00,
2013-03-21 18:14:00,32.1,18.6,30.04,NE,45,0.0,0.0,57,0.00,,,0.02,WUHU215HW,2013-03-21 23:14:00,
2013-03-21 18:16:00,32.1,18.6,30.04,NNE,23,2.2,2.2,57,0.00,,,0.02,WUHU215HW,2013-03-21 23:16:00,
2013-03-21 18:17:00,32.0,18.5,30.04,NNE,23,2.2,2.2,57,0.00,,,0.02,WUHU215HW,2013-03-21 23:17:00,
2013-03-21 18:19:00,32.0,18.5,30.04,NNE,23,2.2,2.2,57,0.00,,,0.02,WUHU215HW,2013-03-21 23:19:00,
2013-03-21 18:22:00,32.2,18.6,30.04,NNE,23,2.2,2.2,57,0.00,,,0.02,WUHU215HW,2013-03-21 23:22:00,
2013-03-21 18:26:00,32.1,18.2,30.04,NNE,23,2.2,2.2,56,0.00,,,0.02,WUHU215HW,2013-03-21 23:26:00,
2013-03-21 18:27:00,32.1,18.2,30.04,NNE,23,2.2,2.2,56,0.00,,,0.02,WUHU215HW,2013-03-21 23:27:00,
2013-03-21 18:30:00,32.1,18.1,30.04,NNE,23,2.2,2.2,56,0.00,,,0.02,WUHU215HW,2013-03-21 23:30:00,
2013-03-21 18:32:00,32.0,18.1,30.04,NNE,23,2.2,2.2,56,0.00,,,0.02,WUHU215HW,2013-03-21 23:32:00,
2013-03-21 18:33:00,32.1,18.2,30.04,NNE,23,2.2,2.2,56,0.00,,,0.02,WUHU215HW,2013-03-21 23:33:00,
2013-03-21 18:36:00,32.2,18.3,30.04,NNE,23,2.2,2.2,56,0.00,,,0.02,WUHU215HW,2013-03-21 23:36:00,
2013-03-21 18:38:00,32.1,18.2,30.04,NNE,23,2.2,2.2,56,0.00,,,0.02,WUHU215HW,2013-03-21 23:38:00,
2013-03-21 18:39:00,32.2,18.2,30.04,NNE,23,2.2,2.2,56,0.00,,,0.02,WUHU215HW,2013-03-21 23:39:00,
2013-03-21 18:43:00,32.3,18.0,30.04,NNE,23,2.2,2.2,55,0.00,,,0.02,WUHU215HW,2013-03-21 23:43:00,
2013-03-21 18:44:00,32.4,18.0,30.04,NNE,23,2.2,2.2,55,0.00,,,0.02,WUHU215HW,2013-03-21 23:44:00,
2013-03-21 18:46:00,32.5,18.1,30.04,NNE,23,2.2,2.2,55,0.00,,,0.02,WUHU215HW,2013-03-21 23:46:00,
2013-03-21 18:48:00,32.6,18.2,30.04,NE,45,0.0,2.2,55,0.00,,,0.02,WUHU215HW,2013-03-21 23:48:00,
2013-03-21 18:49:00,32.6,18.2,30.04,North,0,0.0,2.2,55,0.00,,,0.02,WUHU215HW,2013-03-21 23:49:00,
2013-03-21 18:53:00,32.6,17.8,30.04,NNE,23,1.5,2.2,54,0.00,,,0.02,WUHU215HW,2013-03-21 23:53:00,
2013-03-21 18:54:00,32.7,17.9,30.04,NNE,23,3.5,3.5,54,0.00,,,0.02,WUHU215HW,2013-03-21 23:54:00,
2013-03-21 18:55:00,32.7,17.9,30.04,NNE,23,2.5,3.5,54,0.00,,,0.02,WUHU215HW,2013-03-21 23:55:00,
2013-03-21 18:59:00,32.7,17.9,30.04,NNE,23,0.0,3.5,54,0.00,,,0.02,WUHU215HW,2013-03-21 23:59:00,
2013-03-21 19:00:00,32.8,18.0,30.04,NE,45,0.0,3.5,54,0.00,,,0.02,WUHU215HW,2013-03-22 00:00:00,
2013-03-21 19:02:00,32.7,17.9,30.04,NE,45,0.0,3.5,54,0.02,,,0.04,WUHU215HW,2013-03-22 00:02:00,
2013-03-21 19:05:00,32.9,18.0,30.04,NE,45,2.4,2.4,54,0.02,,,0.04,WUHU215HW,2013-03-22 00:05:00,
2013-03-21 19:06:00,32.9,18.1,30.04,NE,45,3.1,3.1,54,0.02,,,0.04,WUHU215HW,2013-03-22 00:06:00,
2013-03-21 19:08:00,33.0,18.1,30.04,NE,45,3.1,3.1,54,0.02,,,0.04,WUHU215HW,2013-03-22 00:08:00,
2013-03-21 19:09:00,32.9,18.1,30.04,NE,45,3.1,3.1,54,0.02,,,0.04,WUHU215HW,2013-03-22 00:09:00,
2013-03-21 19:11:00,32.9,18.1,30.04,NE,41,2.5,3.1,54,0.02,,,0.04,WUHU215HW,2013-03-22 00:11:00,
2013-03-21 19:13:00,32.7,18.1,30.04,North,0,3.3,3.3,54,0.02,,,0.04,WUHU215HW,2013-03-22 00:13:00,
2013-03-21 19:15:00,32.7,18.1,30.04,North,0,3.3,3.3,54,0.02,,,0.04,WUHU215HW,2013-03-22 00:15:00,
2013-03-21 19:18:00,32.7,17.8,30.04,North,0,3.3,3.3,54,0.02,,,0.04,WUHU215HW,2013-03-22 00:18:00,
2013-03-21 19:22:00,32.5,17.8,30.04,NNE,23,0.0,3.3,54,0.02,,,0.04,WUHU215HW,2013-03-22 00:22:00,
2013-03-21 19:23:00,32.5,17.8,30.04,NNE,23,0.0,3.3,54,0.02,,,0.04,WUHU215HW,2013-03-22 00:23:00,
2013-03-21 19:24:00,32.5,17.8,30.04,NNE,23,0.0,3.3,55,0.02,,,0.04,WUHU215HW,2013-03-22 00:24:00,
2013-03-21 19:27:00,32.5,18.0,30.04,NNE,23,0.0,0.0,55,0.02,,,0.04,WUHU215HW,2013-03-22 00:27:00,
2013-03-21 19:29:00,32.5,18.0,30.04,NE,45,0.0,0.0,55,0.02,,,0.04,WUHU215HW,2013-03-22 00:29:00,
2013-03-21 19:34:00,32.5,18.0,30.04,NE,45,0.0,0.0,55,0.02,,,0.04,WUHU215HW,2013-03-22 00:34:00,
2013-03-21 19:36:00,32.5,18.0,30.04,NE,45,0.0,0.0,54,0.02,,,0.04,WUHU215HW,2013-03-22 00:36:00,
2013-03-21 19:39:00,32.3,18.0,30.04,ENE,68,0.0,0.0,54,0.02,,,0.04,WUHU215HW,2013-03-22 00:39:00,
2013-03-21 19:40:00,32.3,18.0,30.04,ENE,68,0.0,0.0,54,0.02,,,0.04,WUHU215HW,2013-03-22 00:40:00,
2013-03-21 19:41:00,32.3,18.0,30.04,East,90,0.0,0.0,54,0.02,,,0.04,WUHU215HW,2013-03-22 00:41:00,
2013-03-21 19:43:00,32.3,17.4,30.04,ESE,113,0.0,0.0,54,0.02,,,0.04,WUHU215HW,2013-03-22 00:43:00,
2013-03-21 19:46:00,32.1,17.3,30.04,ESE,113,0.0,0.0,54,0.02,,,0.04,WUHU215HW,2013-03-22 00:46:00,
2013-03-21 19:47:00,32.1,17.3,30.04,East,90,0.0,0.0,54,0.02,,,0.04,WUHU215HW,2013-03-22 00:47:00,
2013-03-21 19:48:00,32.1,17.3,30.04,East,90,0.0,0.0,54,0.02,,,0.04,WUHU215HW,2013-03-22 00:48:00,
2013-03-21 19:51:00,32.1,17.3,30.04,SSE,158,0.0,0.0,54,0.02,,,0.04,WUHU215HW,2013-03-22 00:51:00,
2013-03-21 19:52:00,32.1,17.3,30.04,SSE,158,0.0,0.0,54,0.02,,,0.04,WUHU215HW,2013-03-22 00:52:00,
2013-03-21 19:53:00,32.1,17.3,30.04,SSE,158,0.0,0.0,54,0.02,,,0.04,WUHU215HW,2013-03-22 00:53:00,
2013-03-21 19:56:00,32.1,16.8,30.04,NE,45,0.0,0.0,53,0.02,,,0.04,WUHU215HW,2013-03-22 00:56:00,
2013-03-21 19:58:00,32.1,16.8,30.04,NE,45,0.0,0.0,53,0.02,,,0.04,WUHU215HW,2013-03-22 00:58:00,
2013-03-21 20:02:00,31.8,16.8,30.04,NE,45,0.0,0.0,52,0.00,,,0.04,WUHU215HW,2013-03-22 01:02:00,
2013-03-21 20:03:00,31.8,16.8,30.04,NE,45,0.0,0.0,52,0.00,,,0.04,WUHU215HW,2013-03-22 01:03:00,
2013-03-21 20:07:00,31.8,16.8,30.04,NE,45,0.0,0.0,52,0.00,,,0.04,WUHU215HW,2013-03-22 01:07:00,
2013-03-21 20:09:00,31.8,16.1,30.04,SSW,203,0.0,0.0,52,0.00,,,0.04,WUHU215HW,2013-03-22 01:09:00,
2013-03-21 20:10:00,31.8,16.1,30.04,SSW,203,0.0,0.0,52,0.00,,,0.04,WUHU215HW,2013-03-22 01:10:00,
2013-03-21 20:13:00,31.8,16.1,30.04,SSW,203,0.0,0.0,52,0.00,,,0.04,WUHU215HW,2013-03-22 01:13:00,
2013-03-21 20:14:00,31.8,16.1,30.04,SSW,203,0.0,0.0,52,0.00,,,0.04,WUHU215HW,2013-03-22 01:14:00,
2013-03-21 20:18:00,31.8,16.1,30.04,ESE,113,0.0,0.0,52,0.00,,,0.04,WUHU215HW,2013-03-22 01:18:00,
2013-03-21 20:19:00,31.8,16.1,30.04,ESE,113,0.0,0.0,52,0.00,,,0.04,WUHU215HW,2013-03-22 01:19:00,
2013-03-21 20:22:00,31.8,16.1,30.04,ESE,113,0.0,0.0,52,0.00,,,0.04,WUHU215HW,2013-03-22 01:22:00,
2013-03-21 20:24:00,31.8,16.1,30.04,ESE,113,0.0,0.0,52,0.00,,,0.04,WUHU215HW,2013-03-22 01:24:00,
2013-03-21 20:26:00,31.8,16.1,30.04,ESE,113,0.0,0.0,52,0.00,,,0.04,WUHU215HW,2013-03-22 01:26:00,
2013-03-21 20:29:00,31.8,16.1,30.04,SSE,158,0.0,0.0,52,0.00,,,0.04,WUHU215HW,2013-03-22 01:29:00,
2013-03-21 20:30:00,31.8,16.1,30.04,SSE,158,0.0,0.0,52,0.00,,,0.04,WUHU215HW,2013-03-22 01:30:00,
2013-03-21 20:31:00,31.8,16.1,30.04,SSE,158,0.0,0.0,52,0.00,,,0.04,WUHU215HW,2013-03-22 01:31:00,
2013-03-21 20:32:00,31.8,16.1,30.04,SSE,158,0.0,0.0,52,0.00,,,0.04,WUHU215HW,2013-03-22 01:32:00,
2013-03-21 20:34:00,31.8,16.1,30.04,SSE,158,0.0,0.0,52,0.00,,,0.04,WUHU215HW,2013-03-22 01:34:00,
2013-03-21 20:35:00,31.8,16.1,30.04,SSE,158,0.0,0.0,52,0.00,,,0.04,WUHU215HW,2013-03-22 01:35:00,
2013-03-21 20:38:00,31.6,16.1,30.04,SSE,158,0.0,0.0,52,0.00,,,0.04,WUHU215HW,2013-03-22 01:38:00,
2013-03-21 20:39:00,31.6,16.1,30.04,SSE,158,0.0,0.0,52,0.00,,,0.04,WUHU215HW,2013-03-22 01:39:00,
2013-03-21 20:42:00,31.6,16.1,30.04,SSE,158,0.0,0.0,52,0.00,,,0.04,WUHU215HW,2013-03-22 01:42:00,
2013-03-21 20:43:00,31.6,15.9,30.04,SSE,158,0.0,0.0,52,0.00,,,0.04,WUHU215HW,2013-03-22 01:43:00,
2013-03-21 20:44:00,31.6,15.9,30.04,SSE,158,0.0,0.0,52,0.00,,,0.04,WUHU215HW,2013-03-22 01:44:00,
2013-03-21 20:47:00,31.6,15.9,30.04,SSE,158,0.0,0.0,52,0.00,,,0.04,WUHU215HW,2013-03-22 01:47:00,
2013-03-21 20:49:00,31.6,15.9,30.04,SSE,158,0.0,0.0,52,0.00,,,0.04,WUHU215HW,2013-03-22 01:49:00,
2013-03-21 20:50:00,31.6,15.9,30.04,SSE,158,0.0,0.0,52,0.00,,,0.04,WUHU215HW,2013-03-22 01:50:00,
2013-03-21 20:52:00,31.6,15.9,30.04,SSE,158,0.0,0.0,52,0.00,,,0.04,WUHU215HW,2013-03-22 01:52:00,
2013-03-21 20:54:00,31.6,15.9,30.04,SSE,158,0.0,0.0,52,0.00,,,0.04,WUHU215HW,2013-03-22 01:54:00,
2013-03-21 20:56:00,31.6,15.9,30.04,SSE,158,0.0,0.0,52,0.00,,,0.04,WUHU215HW,2013-03-22 01:56:00,
2013-03-21 20:59:00,31.6,15.9,30.04,SSE,158,0.0,0.0,52,0.00,,,0.04,WUHU215HW,2013-03-22 01:59:00,
2013-03-21 21:01:00,31.6,15.9,30.04,SSE,158,0.0,0.0,29,0.00,,,0.04,WUHU215HW,2013-03-22 02:01:00,
2013-03-21 21:03:00,31.6,15.9,30.04,SSE,158,0.0,0.0,29,0.00,,,0.04,WUHU215HW,2013-03-22 02:03:00,
2013-03-21 21:04:00,31.6,15.9,30.04,SSE,158,0.0,0.0,29,0.00,,,0.04,WUHU215HW,2013-03-22 02:04:00,
2013-03-21 21:07:00,31.6,15.9,30.04,SSE,158,0.0,0.0,29,0.00,,,0.04,WUHU215HW,2013-03-22 02:07:00,
2013-03-21 21:08:00,31.6,15.9,30.04,SSE,158,0.0,0.0,29,0.00,,,0.04,WUHU215HW,2013-03-22 02:08:00,
2013-03-21 21:10:00,31.6,15.9,30.04,SSE,158,0.0,0.0,29,0.00,,,0.04,WUHU215HW,2013-03-22 02:10:00,
2013-03-21 21:12:00,31.6,15.9,30.04,SSE,158,0.0,0.0,29,0.00,,,0.04,WUHU215HW,2013-03-22 02:12:00,
2013-03-21 21:13:00,31.6,15.9,30.04,SSE,158,0.0,0.0,29,0.00,,,0.04,WUHU215HW,2013-03-22 02:13:00,
2013-03-21 21:16:00,31.6,15.9,30.04,SSE,158,0.0,0.0,29,0.00,,,0.04,WUHU215HW,2013-03-22 02:16:00,
2013-03-21 21:17:00,31.6,15.9,30.04,SSE,158,0.0,0.0,29,0.00,,,0.04,WUHU215HW,2013-03-22 02:17:00,
2013-03-21 21:20:00,31.6,15.9,30.04,SSE,158,0.0,0.0,29,0.00,,,0.04,WUHU215HW,2013-03-22 02:20:00,
2013-03-21 21:22:00,31.6,15.9,30.04,SSE,158,0.0,0.0,29,0.00,,,0.04,WUHU215HW,2013-03-22 02:22:00,
2013-03-21 21:25:00,31.6,15.9,30.04,SSE,158,0.0,0.0,29,0.00,,,0.04,WUHU215HW,2013-03-22 02:25:00,
2013-03-21 21:27:00,31.6,15.9,30.04,SSE,158,0.0,0.0,29,0.00,,,0.04,WUHU215HW,2013-03-22 02:27:00,
2013-03-21 21:30:00,31.6,15.9,30.04,SSE,158,0.0,0.0,29,0.00,,,0.04,WUHU215HW,2013-03-22 02:30:00,
2013-03-21 21:31:00,31.6,15.9,30.04,SSE,158,0.0,0.0,29,0.00,,,0.04,WUHU215HW,2013-03-22 02:31:00,
2013-03-21 21:32:00,31.2,15.9,30.04,SSE,158,0.0,0.0,29,0.00,,,0.04,WUHU215HW,2013-03-22 02:32:00,
2013-03-21 21:37:00,31.2,15.9,30.04,SSE,158,0.0,0.0,29,0.00,,,0.04,WUHU215HW,2013-03-22 02:37:00,
2013-03-21 21:38:00,31.2,15.9,30.04,SSE,158,0.0,0.0,29,0.00,,,0.04,WUHU215HW,2013-03-22 02:38:00,
2013-03-21 21:40:00,31.2,15.9,30.04,SSE,158,0.0,0.0,29,0.00,,,0.04,WUHU215HW,2013-03-22 02:40:00,
2013-03-21 21:44:00,31.2,2.5,30.04,SSE,158,0.0,0.0,29,0.00,,,0.04,WUHU215HW,2013-03-22 02:44:00,
2013-03-21 21:45:00,31.2,2.5,30.04,SSE,158,0.0,0.0,29,0.00,,,0.04,WUHU215HW,2013-03-22 02:45:00,
2013-03-21 21:47:00,31.2,2.5,30.04,SSE,158,0.0,0.0,29,0.00,,,0.04,WUHU215HW,2013-03-22 02:47:00,
2013-03-21 21:49:00,31.2,2.5,30.04,SSE,158,0.0,0.0,29,0.00,,,0.04,WUHU215HW,2013-03-22 02:49:00,
2013-03-21 21:50:00,31.2,2.5,30.04,SSE,158,0.0,0.0,29,0.00,,,0.04,WUHU215HW,2013-03-22 02:50:00,
2013-03-21 21:51:00,31.2,2.5,30.04,SSE,158,0.0,0.0,29,0.00,,,0.04,WUHU215HW,2013-03-22 02:51:00,
2013-03-21 21:55:00,31.2,2.5,30.04,SSE,158,0.0,0.0,52,0.00,,,0.04,WUHU215HW,2013-03-22 02:55:00,
2013-03-21 21:56:00,31.1,2.5,30.04,SSE,158,0.0,0.0,52,0.00,,,0.04,WUHU215HW,2013-03-22 02:56:00,
2013-03-21 21:59:00,31.1,2.5,30.04,NNE,23,0.0,0.0,52,0.00,,,0.04,WUHU215HW,2013-03-22 02:59:00,
2013-03-21 22:01:00,31.1,2.5,30.04,NNE,23,0.0,0.0,52,0.00,,,0.04,WUHU215HW,2013-03-22 03:01:00,
2013-03-21 22:04:00,31.1,2.5,30.04,NNE,23,0.0,0.0,52,0.00,,,0.04,WUHU215HW,2013-03-22 03:04:00,
2013-03-21 22:05:00,31.1,15.4,30.04,NNE,23,0.0,0.0,52,0.00,,,0.04,WUHU215HW,2013-03-22 03:05:00,
2013-03-21 22:06:00,31.1,15.4,30.04,NNE,23,0.0,0.0,52,0.00,,,0.04,WUHU215HW,2013-03-22 03:06:00,
2013-03-21 22:10:00,31.1,15.4,30.04,NNE,23,0.0,0.0,52,0.00,,,0.04,WUHU215HW,2013-03-22 03:10:00,
2013-03-21 22:11:00,31.1,15.4,30.04,NNE,23,0.0,0.0,52,0.00,,,0.04,WUHU215HW,2013-03-22 03:11:00,
2013-03-21 22:15:00,31.1,15.4,30.04,NE,45,0.0,0.0,52,0.00,,,0.04,WUHU215HW,2013-03-22 03:15:00,
2013-03-21 22:16:00,31.1,15.4,30.04,NE,45,0.0,0.0,52,0.00,,,0.04,WUHU215HW,2013-03-22 03:16:00,
2013-03-21 22:20:00,31.1,15.2,30.04,NE,45,0.0,0.0,53,0.00,,,0.04,WUHU215HW,2013-03-22 03:20:00,
2013-03-21 22:23:00,30.9,15.2,30.04,NE,45,0.0,0.0,53,0.00,,,0.04,WUHU215HW,2013-03-22 03:23:00,
2013-03-21 22:24:00,30.9,15.2,30.04,NE,45,0.0,0.0,53,0.00,,,0.04,WUHU215HW,2013-03-22 03:24:00,
2013-03-21 22:25:00,30.9,15.2,30.04,NE,45,0.0,0.0,53,0.00,,,0.04,WUHU215HW,2013-03-22 03:25:00,
2013-03-21 22:26:00,30.9,15.2,30.04,NE,45,0.0,0.0,53,0.00,,,0.04,WUHU215HW,2013-03-22 03:26:00,
2013-03-21 22:28:00,30.9,15.2,30.04,NE,45,0.0,0.0,53,0.00,,,0.04,WUHU215HW,2013-03-22 03:28:00,
2013-03-21 22:31:00,30.9,15.2,30.04,NE,45,0.0,0.0,53,0.00,,,0.04,WUHU215HW,2013-03-22 03:31:00,
2013-03-21 22:33:00,30.9,15.2,30.04,NE,45,0.0,0.0,53,0.00,,,0.04,WUHU215HW,2013-03-22 03:33:00,
2013-03-21 22:34:00,30.9,15.2,30.04,NE,45,0.0,0.0,53,0.00,,,0.04,WUHU215HW,2013-03-22 03:34:00,
2013-03-21 22:35:00,30.9,15.2,30.04,NE,45,0.0,0.0,53,0.00,,,0.04,WUHU215HW,2013-03-22 03:35:00,
2013-03-21 22:39:00,30.9,15.2,30.04,NE,45,0.0,0.0,53,0.00,,,0.04,WUHU215HW,2013-03-22 03:39:00,
2013-03-21 22:40:00,30.9,15.2,30.04,NE,45,0.0,0.0,53,0.00,,,0.04,WUHU215HW,2013-03-22 03:40:00,
2013-03-21 22:41:00,30.9,15.2,30.04,NE,45,0.0,0.0,53,0.00,,,0.04,WUHU215HW,2013-03-22 03:41:00,
2013-03-21 22:43:00,30.9,15.2,30.04,NE,45,0.0,0.0,53,0.00,,,0.04,WUHU215HW,2013-03-22 03:43:00,
2013-03-21 22:44:00,30.9,15.2,30.04,NE,45,0.0,0.0,53,0.00,,,0.04,WUHU215HW,2013-03-22 03:44:00,
2013-03-21 22:46:00,30.9,15.2,30.04,NE,45,0.0,0.0,53,0.00,,,0.04,WUHU215HW,2013-03-22 03:46:00,
2013-03-21 22:48:00,30.9,15.2,30.04,NE,45,0.0,0.0,53,0.00,,,0.04,WUHU215HW,2013-03-22 03:48:00,
2013-03-21 22:51:00,30.9,15.2,30.04,NE,45,0.0,0.0,53,0.00,,,0.04,WUHU215HW,2013-03-22 03:51:00,
2013-03-21 22:55:00,30.9,15.7,30.04,SSE,158,0.0,0.0,53,0.00,,,0.04,WUHU215HW,2013-03-22 03:55:00,
2013-03-21 22:56:00,30.9,15.7,30.04,SSE,158,0.0,0.0,53,0.00,,,0.04,WUHU215HW,2013-03-22 03:56:00,
2013-03-21 22:58:00,30.9,15.7,30.04,SSE,158,0.0,0.0,53,0.00,,,0.04,WUHU215HW,2013-03-22 03:58:00,
2013-03-21 23:00:00,30.9,15.7,30.04,SSE,158,0.0,0.0,53,0.00,,,0.04,WUHU215HW,2013-03-22 04:00:00,
2013-03-21 23:01:00,30.9,15.7,30.04,SSE,158,0.0,0.0,53,0.00,,,0.04,WUHU215HW,2013-03-22 04:01:00,
2013-03-21 23:03:00,30.9,15.7,30.04,SSE,158,0.0,0.0,53,0.00,,,0.04,WUHU215HW,2013-03-22 04:03:00,
2013-03-21 23:05:00,30.9,15.7,30.04,SSE,158,0.0,0.0,53,0.00,,,0.04,WUHU215HW,2013-03-22 04:05:00,
2013-03-21 23:06:00,30.9,15.7,30.04,SSE,158,0.0,0.0,54,0.00,,,0.04,WUHU215HW,2013-03-22 04:06:00,
2013-03-21 23:08:00,30.9,15.7,30.04,SSE,158,0.0,0.0,54,0.00,,,0.04,WUHU215HW,2013-03-22 04:08:00,
2013-03-21 23:11:00,30.7,15.7,30.04,SSE,158,0.0,0.0,54,0.00,,,0.04,WUHU215HW,2013-03-22 04:11:00,
2013-03-21 23:12:00,30.7,15.7,30.04,SSE,158,0.0,0.0,54,0.00,,,0.04,WUHU215HW,2013-03-22 04:12:00,
2013-03-21 23:13:00,30.7,15.7,30.04,SSE,158,0.0,0.0,54,0.00,,,0.04,WUHU215HW,2013-03-22 04:13:00,
2013-03-21 23:15:00,30.7,15.7,30.04,SSE,158,0.0,0.0,54,0.00,,,0.04,WUHU215HW,2013-03-22 04:15:00,
2013-03-21 23:16:00,30.7,15.7,30.04,SSE,158,0.0,0.0,54,0.00,,,0.04,WUHU215HW,2013-03-22 04:16:00,
2013-03-21 23:19:00,30.7,15.7,30.04,SSE,158,0.0,0.0,54,0.00,,,0.04,WUHU215HW,2013-03-22 04:19:00,
2013-03-21 23:20:00,30.7,15.7,30.04,SSE,158,0.0,0.0,54,0.00,,,0.04,WUHU215HW,2013-03-22 04:20:00,
2013-03-21 23:22:00,30.7,15.7,30.04,SSE,158,0.0,0.0,54,0.00,,,0.04,WUHU215HW,2013-03-22 04:22:00,
2013-03-21 23:23:00,30.7,15.7,30.04,SSE,158,0.0,0.0,54,0.00,,,0.04,WUHU215HW,2013-03-22 04:23:00,
2013-03-21 23:25:00,30.7,15.7,30.04,SSE,158,0.0,0.0,54,0.00,,,0.04,WUHU215HW,2013-03-22 04:25:00,
2013-03-21 23:27:00,30.7,15.7,30.04,SSE,158,0.0,0.0,54,0.00,,,0.04,WUHU215HW,2013-03-22 04:27:00,
2013-03-21 23:30:00,30.7,15.7,30.04,SSE,158,0.0,0.0,54,0.00,,,0.04,WUHU215HW,2013-03-22 04:30:00,
2013-03-21 23:31:00,30.7,15.7,30.04,SSE,158,0.0,0.0,54,0.00,,,0.04,WUHU215HW,2013-03-22 04:31:00,
2013-03-21 23:32:00,30.7,15.7,30.04,SSE,158,0.0,0.0,53,0.00,,,0.04,WUHU215HW,2013-03-22 04:32:00,
2013-03-21 23:37:00,30.7,15.7,30.04,SSE,158,0.0,0.0,53,0.00,,,0.04,WUHU215HW,2013-03-22 04:37:00,
2013-03-21 23:40:00,30.7,15.7,30.04,North,0,0.0,0.0,53,0.00,,,0.04,WUHU215HW,2013-03-22 04:40:00,
2013-03-21 23:43:00,30.7,15.5,30.04,North,0,0.0,0.0,53,0.00,,,0.04,WUHU215HW,2013-03-22 04:43:00,
2013-03-21 23:45:00,30.7,15.5,30.04,North,0,0.0,0.0,53,0.00,,,0.04,WUHU215HW,2013-03-22 04:45:00,
2013-03-21 23:46:00,30.7,15.5,30.04,North,0,0.0,0.0,53,0.00,,,0.04,WUHU215HW,2013-03-22 04:46:00,
2013-03-21 23:48:00,30.7,15.5,30.04,North,0,0.0,0.0,53,0.00,,,0.04,WUHU215HW,2013-03-22 04:48:00,
2013-03-21 23:49:00,30.7,15.5,30.04,North,0,0.0,0.0,53,0.00,,,0.04,WUHU215HW,2013-03-22 04:49:00,
2013-03-21 23:51:00,30.7,15.5,30.04,North,0,0.0,0.0,53,0.00,,,0.04,WUHU215HW,2013-03-22 04:51:00,
2013-03-21 23:55:00,30.7,15.5,30.04,North,0,0.0,0.0,53,0.00,,,0.04,WUHU215HW,2013-03-22 04:55:00,
2013-03-21 23:57:00,30.7,15.5,30.04,North,0,0.0,0.0,53,0.00,,,0.04,WUHU215HW,2013-03-22 04:57:00,